Time,TemperatureF,DewpointF,PressureIn,WindDirection,WindDirectionDegrees,WindSpeedMPH,WindSpeedGustMPH,Humidity,HourlyPrecipIn,Conditions,Clouds,dailyrainin,SoftwareType,DateUTC
2013-02-13 00:00:00,42.8,32.2,27.84,North,0,4.6,0.0,66,0.17,RA,SKC,0.00,WeatherDisplay:10.37,2013-02-13 05:00:00,
2013-02-13 00:05:00,42.8,32.2,27.83,North,0,3.5,0.0,66,0.17,RA,SKC,0.00,WeatherDisplay:10.37,2013-02-13 05:05:00,
2013-02-13 00:10:00,43.0,32.4,27.83,NE,45,1.1,0.0,66,0.12,CLR,SKC,0.00,WeatherDisplay:10.37,2013-02-13 05:10:00,
2013-02-13 00:15:00,43.0,32.0,27.82,NE,45,0.0,0.0,65,0.09,CLR,SKC,0.00,WeatherDisplay:10.37,2013-02-13 05:15:00,
2013-02-13 00:16:00,43.0,32.0,27.82,NW,315,1.1,0.0,65,0.09,CLR,SKC,0.00,WeatherDisplay:10.37,2013-02-13 05:16:00,
2013-02-13 00:20:00,43.0,32.0,27.81,SE,135,1.1,0.0,65,0.09,CLR,SKC,0.00,WeatherDisplay:10.37,2013-02-13 05:20:00,
2013-02-13 00:21:00,43.0,32.0,27.81,NW,315,1.1,0.0,65,0.09,CLR,SKC,0.00,WeatherDisplay:10.37,2013-02-13 05:21:00,
2013-02-13 00:25:00,43.0,32.0,27.82,SE,135,2.3,0.0,65,0.08,CLR,SKC,0.00,WeatherDisplay:10.37,2013-02-13 05:25:00,
2013-02-13 00:26:00,43.0,32.0,27.82,SE,135,2.3,0.0,65,0.07,CLR,SKC,0.00,WeatherDisplay:10.37,2013-02-13 05:26:00,
2013-02-13 00:31:00,42.8,31.8,27.82,North,0,2.3,2.3,65,0.07,CLR,SKC,0.00,WeatherDisplay:10.37,2013-02-13 05:31:00,
2013-02-13 00:36:00,43.0,31.6,27.81,East,90,3.5,3.5,64,0.06,CLR,SKC,0.00,WeatherDisplay:10.37,2013-02-13 05:36:00,
2013-02-13 00:41:00,43.0,31.2,27.81,North,0,3.5,3.5,63,0.05,CLR,SKC,0.00,WeatherDisplay:10.37,2013-02-13 05:41:00,
2013-02-13 00:42:00,43.0,31.2,27.81,North,0,3.5,3.5,63,0.05,CLR,SKC,0.00,WeatherDisplay:10.37,2013-02-13 05:42:00,
2013-02-13 00:46:00,43.0,31.2,27.81,North,0,2.3,0.0,63,0.05,CLR,SKC,0.00,WeatherDisplay:10.37,2013-02-13 05:46:00,
2013-02-13 00:47:00,43.0,31.2,27.81,North,0,3.5,3.5,63,0.04,CLR,SKC,0.00,WeatherDisplay:10.37,2013-02-13 05:47:00,
2013-02-13 00:51:00,42.8,31.5,27.81,NE,45,3.5,0.0,64,0.02,CLR,SKC,0.00,WeatherDisplay:10.37,2013-02-13 05:51:00,
2013-02-13 00:52:00,42.8,31.5,27.81,NE,45,2.3,0.0,64,0.02,CLR,SKC,0.00,WeatherDisplay:10.37,2013-02-13 05:52:00,
2013-02-13 00:56:00,42.6,30.9,27.81,North,0,2.3,2.3,63,0.00,CLR,SKC,0.00,WeatherDisplay:10.37,2013-02-13 05:56:00,
2013-02-13 00:57:00,42.6,30.9,27.81,North,0,2.3,2.3,63,0.00,CLR,SKC,0.00,WeatherDisplay:10.37,2013-02-13 05:57:00,
2013-02-13 01:02:00,43.0,30.8,27.80,NE,45,2.3,2.3,62,0.01,RA,SKC,0.01,WeatherDisplay:10.37,2013-02-13 06:02:00,
2013-02-13 01:07:00,43.0,30.8,27.81,NE,45,2.3,2.3,62,0.01,RA,SKC,0.01,WeatherDisplay:10.37,2013-02-13 06:07:00,
2013-02-13 01:12:00,43.0,30.4,27.81,East,90,3.5,0.0,61,0.01,CLR,SKC,0.01,WeatherDisplay:10.37,2013-02-13 06:12:00,
2013-02-13 01:17:00,43.0,30.4,27.79,East,90,2.3,0.0,61,0.01,CLR,SKC,0.01,WeatherDisplay:10.37,2013-02-13 06:17:00,
2013-02-13 01:22:00,43.0,30.4,27.79,NW,315,0.0,0.0,61,0.01,CLR,SKC,0.01,WeatherDisplay:10.37,2013-02-13 06:22:00,
2013-02-13 01:23:00,43.0,30.4,27.79,NW,315,0.0,0.0,61,0.01,CLR,SKC,0.02,WeatherDisplay:10.37,2013-02-13 06:23:00,
2013-02-13 01:27:00,42.8,30.3,27.80,SE,135,3.5,3.5,61,0.02,RA,SKC,0.02,WeatherDisplay:10.37,2013-02-13 06:27:00,
2013-02-13 01:28:00,43.0,30.4,27.80,SE,135,5.8,5.8,61,0.02,RA,SKC,0.02,WeatherDisplay:10.37,2013-02-13 06:28:00,
2013-02-13 01:32:00,43.2,29.8,27.80,SE,135,3.5,0.0,59,0.02,RA,SKC,0.02,WeatherDisplay:10.37,2013-02-13 06:32:00,
2013-02-13 01:33:00,43.2,29.4,27.79,SE,135,5.8,5.8,58,0.02,,SKC,0.02,WeatherDisplay:10.37,2013-02-13 06:33:00,
2013-02-13 01:37:00,43.2,29.4,27.79,SE,135,4.6,4.6,58,0.02,CLR,SKC,0.02,WeatherDisplay:10.37,2013-02-13 06:37:00,
2013-02-13 01:38:00,43.2,29.4,27.79,SE,135,4.6,4.6,58,0.02,CLR,SKC,0.02,WeatherDisplay:10.37,2013-02-13 06:38:00,
2013-02-13 01:42:00,43.2,29.8,27.78,NW,315,0.0,0.0,59,0.02,CLR,SKC,0.02,WeatherDisplay:10.37,2013-02-13 06:42:00,
2013-02-13 01:43:00,43.0,30.0,27.79,NE,45,0.0,0.0,60,0.02,CLR,SKC,0.02,WeatherDisplay:10.37,2013-02-13 06:43:00,
2013-02-13 01:47:00,43.0,30.0,27.79,SE,135,4.6,0.0,60,0.02,CLR,SKC,0.02,WeatherDisplay:10.37,2013-02-13 06:47:00,
2013-02-13 01:48:00,43.0,30.0,27.79,SE,135,0.0,0.0,60,0.02,CLR,SKC,0.02,WeatherDisplay:10.37,2013-02-13 06:48:00,
2013-02-13 01:52:00,43.0,30.0,27.79,South,180,5.4,5.4,60,0.02,CLR,SKC,0.02,WeatherDisplay:10.37,2013-02-13 06:52:00,
2013-02-13 01:53:00,43.0,30.0,27.79,South,180,5.8,5.8,60,0.02,CLR,SKC,0.02,WeatherDisplay:10.37,2013-02-13 06:53:00,
2013-02-13 01:54:00,43.0,30.0,27.79,South,180,5.8,5.8,60,0.02,CLR,SKC,0.02,WeatherDisplay:10.37,2013-02-13 06:54:00,
2013-02-13 01:58:00,43.2,29.8,27.79,East,90,1.1,0.0,59,0.01,CLR,SKC,0.02,WeatherDisplay:10.37,2013-02-13 06:58:00,
2013-02-13 01:59:00,43.2,30.2,27.78,East,90,2.3,0.0,60,0.01,CLR,SKC,0.02,WeatherDisplay:10.37,2013-02-13 06:59:00,
2013-02-13 02:03:00,43.2,30.2,27.78,East,90,0.0,0.0,60,0.01,CLR,SKC,0.02,WeatherDisplay:10.37,2013-02-13 07:03:00,
2013-02-13 02:04:00,43.2,30.2,27.78,East,90,0.0,0.0,60,0.01,CLR,SKC,0.02,WeatherDisplay:10.37,2013-02-13 07:04:00,
2013-02-13 02:08:00,43.0,30.8,27.78,SW,225,0.0,0.0,62,0.01,CLR,SKC,0.02,WeatherDisplay:10.37,2013-02-13 07:08:00,
2013-02-13 02:09:00,42.8,30.7,27.78,SW,225,0.0,0.0,62,0.01,CLR,SKC,0.02,WeatherDisplay:10.37,2013-02-13 07:09:00,
2013-02-13 02:13:00,42.8,30.7,27.77,SW,225,0.0,0.0,62,0.01,CLR,SKC,0.02,WeatherDisplay:10.37,2013-02-13 07:13:00,
2013-02-13 02:14:00,42.8,30.7,27.77,SW,225,0.0,0.0,62,0.01,CLR,SKC,0.02,WeatherDisplay:10.37,2013-02-13 07:14:00,
2013-02-13 02:15:00,42.8,30.7,27.77,NW,315,0.0,0.0,62,0.01,CLR,SKC,0.02,WeatherDisplay:10.37,2013-02-13 07:15:00,
2013-02-13 02:18:00,42.8,31.1,27.77,NE,45,3.5,0.0,63,0.01,CLR,SKC,0.02,WeatherDisplay:10.37,2013-02-13 07:18:00,
2013-02-13 02:19:00,42.8,31.1,27.77,North,0,2.3,0.0,63,0.01,CLR,SKC,0.02,WeatherDisplay:10.37,2013-02-13 07:19:00,
2013-02-13 02:20:00,42.8,31.1,27.77,North,0,3.5,0.0,63,0.01,CLR,SKC,0.02,WeatherDisplay:10.37,2013-02-13 07:20:00,
2013-02-13 02:24:00,42.8,31.5,27.77,NW,315,3.5,0.0,64,0.00,CLR,SKC,0.02,WeatherDisplay:10.37,2013-02-13 07:24:00,
2013-02-13 02:25:00,42.8,31.5,27.77,SE,135,1.1,0.0,64,0.00,CLR,SKC,0.02,WeatherDisplay:10.37,2013-02-13 07:25:00,
2013-02-13 02:29:00,42.8,31.1,27.77,SE,135,0.0,0.0,63,0.00,CLR,SKC,0.02,WeatherDisplay:10.37,2013-02-13 07:29:00,
2013-02-13 02:30:00,42.8,31.1,27.77,SE,131,0.0,4.0,63,0.00,CLR,SKC,0.02,WeatherDisplay:10.37,2013-02-13 07:30:00,
2013-02-13 02:34:00,42.6,30.9,27.76,NW,315,0.0,0.0,63,0.00,CLR,SKC,0.02,WeatherDisplay:10.37,2013-02-13 07:34:00,
2013-02-13 02:35:00,42.6,30.9,27.76,NW,315,0.0,0.0,63,0.00,CLR,SKC,0.02,WeatherDisplay:10.37,2013-02-13 07:35:00,
2013-02-13 02:39:00,42.8,30.7,27.76,NW,315,3.5,3.5,62,0.00,CLR,SKC,0.02,WeatherDisplay:10.37,2013-02-13 07:39:00,
2013-02-13 02:40:00,42.8,30.7,27.76,NW,315,3.5,3.5,62,0.00,CLR,SKC,0.02,WeatherDisplay:10.37,2013-02-13 07:40:00,
2013-02-13 02:44:00,43.0,30.8,27.76,NW,315,0.0,0.0,62,0.00,CLR,SKC,0.02,WeatherDisplay:10.37,2013-02-13 07:44:00,
2013-02-13 02:45:00,43.0,30.8,27.76,NW,315,0.0,0.0,62,0.00,CLR,SKC,0.02,WeatherDisplay:10.37,2013-02-13 07:45:00,
2013-02-13 02:49:00,43.0,30.4,27.76,SE,135,5.8,0.0,61,0.00,CLR,SKC,0.02,WeatherDisplay:10.37,2013-02-13 07:49:00,
2013-02-13 02:50:00,43.0,30.4,27.76,SE,135,1.1,0.0,61,0.00,CLR,SKC,0.02,WeatherDisplay:10.37,2013-02-13 07:50:00,
2013-02-13 02:55:00,43.3,30.4,27.75,SE,135,6.0,6.0,60,0.00,CLR,SKC,0.02,WeatherDisplay:10.37,2013-02-13 07:55:00,
2013-02-13 02:56:00,43.3,30.4,27.75,SE,135,5.8,5.8,60,0.00,CLR,SKC,0.02,WeatherDisplay:10.37,2013-02-13 07:56:00,
2013-02-13 03:00:00,43.3,29.5,27.75,SE,135,5.8,5.8,58,0.00,CLR,SKC,0.02,WeatherDisplay:10.37,2013-02-13 08:00:00,
2013-02-13 03:01:00,43.3,29.5,27.75,SE,135,5.8,0.0,58,0.00,CLR,SKC,0.02,WeatherDisplay:10.37,2013-02-13 08:01:00,
2013-02-13 03:05:00,43.3,29.5,27.75,SE,135,0.0,0.0,58,0.00,CLR,SKC,0.02,WeatherDisplay:10.37,2013-02-13 08:05:00,
2013-02-13 03:06:00,43.3,29.5,27.75,SE,135,0.0,0.0,58,0.00,CLR,SKC,0.02,WeatherDisplay:10.37,2013-02-13 08:06:00,
2013-02-13 03:10:00,43.2,30.2,27.74,East,90,0.0,0.0,60,0.00,CLR,SKC,0.02,WeatherDisplay:10.37,2013-02-13 08:10:00,
2013-02-13 03:11:00,43.2,30.2,27.74,East,90,1.1,0.0,60,0.00,CLR,SKC,0.02,WeatherDisplay:10.37,2013-02-13 08:11:00,
2013-02-13 03:15:00,43.0,30.4,27.75,East,90,0.0,0.0,61,0.00,CLR,SKC,0.02,WeatherDisplay:10.37,2013-02-13 08:15:00,
2013-02-13 03:16:00,42.8,30.3,27.75,East,90,0.0,0.0,61,0.00,CLR,SKC,0.02,WeatherDisplay:10.37,2013-02-13 08:16:00,
2013-02-13 03:17:00,43.0,30.8,27.75,East,90,1.1,0.0,62,0.00,CLR,SKC,0.02,WeatherDisplay:10.37,2013-02-13 08:17:00,
2013-02-13 03:20:00,43.0,30.8,27.74,NW,315,1.1,0.0,62,0.00,CLR,SKC,0.02,WeatherDisplay:10.37,2013-02-13 08:20:00,
2013-02-13 03:21:00,43.0,30.8,27.74,NW,315,1.1,0.0,62,0.00,CLR,SKC,0.02,WeatherDisplay:10.37,2013-02-13 08:21:00,
2013-02-13 03:22:00,43.0,31.2,27.74,North,0,0.0,0.0,63,0.00,CLR,SKC,0.02,WeatherDisplay:10.37,2013-02-13 08:22:00,
2013-02-13 03:25:00,43.0,31.2,27.74,SE,135,3.5,0.0,63,0.00,CLR,SKC,0.02,WeatherDisplay:10.37,2013-02-13 08:25:00,
2013-02-13 03:26:00,43.0,31.2,27.74,West,270,3.5,3.5,63,0.00,CLR,SKC,0.02,WeatherDisplay:10.37,2013-02-13 08:26:00,
2013-02-13 03:27:00,43.0,31.2,27.74,SSW,202,4.6,4.6,63,0.00,CLR,SKC,0.02,WeatherDisplay:10.37,2013-02-13 08:27:00,
2013-02-13 03:31:00,43.2,31.0,27.74,East,90,3.5,3.5,62,0.01,RA,SKC,0.04,WeatherDisplay:10.37,2013-02-13 08:31:00,
2013-02-13 03:32:00,43.2,31.0,27.74,NE,45,3.5,3.5,62,0.01,RA,SKC,0.04,WeatherDisplay:10.37,2013-02-13 08:32:00,
2013-02-13 03:36:00,43.5,30.5,27.74,SE,135,10.4,10.4,60,0.01,RA,SKC,0.04,WeatherDisplay:10.37,2013-02-13 08:36:00,
2013-02-13 03:37:00,43.5,30.1,27.74,SE,135,10.4,10.4,59,0.02,RA,SKC,0.05,WeatherDisplay:10.37,2013-02-13 08:37:00,
2013-02-13 03:41:00,43.3,30.0,27.74,SE,135,3.5,0.0,59,0.02,RA,SKC,0.05,WeatherDisplay:10.37,2013-02-13 08:41:00,
2013-02-13 03:42:00,43.3,30.0,27.74,South,180,3.5,3.5,59,0.02,RA,SKC,0.05,WeatherDisplay:10.37,2013-02-13 08:42:00,
2013-02-13 03:46:00,43.3,30.0,27.74,South,180,3.5,3.5,59,0.02,RA,SKC,0.05,WeatherDisplay:10.37,2013-02-13 08:46:00,
2013-02-13 03:47:00,43.5,30.5,27.74,SE,135,3.5,0.0,60,0.04,RA,SKC,0.06,WeatherDisplay:10.37,2013-02-13 08:47:00,
2013-02-13 03:48:00,43.5,30.5,27.74,SE,135,3.5,0.0,60,0.04,RA,SKC,0.06,WeatherDisplay:10.37,2013-02-13 08:48:00,
2013-02-13 03:51:00,43.3,30.0,27.74,ENE,68,5.8,5.8,59,0.04,RA,SKC,0.06,WeatherDisplay:10.37,2013-02-13 08:51:00,
2013-02-13 03:52:00,43.5,29.7,27.74,SE,135,9.2,9.2,58,0.04,RA,SKC,0.06,WeatherDisplay:10.37,2013-02-13 08:52:00,
2013-02-13 03:53:00,43.5,29.7,27.74,South,180,9.2,9.2,58,0.04,RA,SKC,0.06,WeatherDisplay:10.37,2013-02-13 08:53:00,
2013-02-13 03:56:00,43.5,29.7,27.74,SE,135,5.8,0.0,58,0.04,RA,SKC,0.06,WeatherDisplay:10.37,2013-02-13 08:56:00,
2013-02-13 03:57:00,43.5,29.7,27.74,SE,135,1.1,0.0,58,0.04,,SKC,0.06,WeatherDisplay:10.37,2013-02-13 08:57:00,
2013-02-13 03:58:00,43.5,29.7,27.74,SE,135,0.0,0.0,58,0.04,,SKC,0.06,WeatherDisplay:10.37,2013-02-13 08:58:00,
2013-02-13 04:01:00,43.5,29.7,27.74,SE,135,3.5,3.5,58,0.04,CLR,SKC,0.06,WeatherDisplay:10.37,2013-02-13 09:01:00,
2013-02-13 04:02:00,43.5,29.7,27.74,SE,135,3.5,3.5,58,0.04,CLR,SKC,0.06,WeatherDisplay:10.37,2013-02-13 09:02:00,
2013-02-13 04:03:00,43.5,29.7,27.73,SE,135,3.5,3.5,58,0.04,CLR,SKC,0.06,WeatherDisplay:10.37,2013-02-13 09:03:00,
2013-02-13 04:06:00,43.5,29.7,27.73,SE,135,3.5,3.5,58,0.04,CLR,SKC,0.06,WeatherDisplay:10.37,2013-02-13 09:06:00,
2013-02-13 04:07:00,43.5,29.7,27.73,SE,135,3.8,3.8,58,0.04,CLR,SKC,0.06,WeatherDisplay:10.37,2013-02-13 09:07:00,
2013-02-13 04:08:00,43.5,29.3,27.73,ENE,68,3.8,3.8,57,0.04,CLR,SKC,0.06,WeatherDisplay:10.37,2013-02-13 09:08:00,
2013-02-13 04:11:00,43.7,29.9,27.73,SSE,158,3.5,3.5,58,0.04,CLR,SKC,0.06,WeatherDisplay:10.37,2013-02-13 09:11:00,
2013-02-13 04:12:00,43.7,29.9,27.73,South,180,4.6,4.6,58,0.04,CLR,SKC,0.06,WeatherDisplay:10.37,2013-02-13 09:12:00,
2013-02-13 04:13:00,43.7,29.5,27.73,SE,135,8.1,8.1,57,0.04,CLR,SKC,0.06,WeatherDisplay:10.37,2013-02-13 09:13:00,
2013-02-13 04:17:00,43.7,29.0,27.73,SW,225,8.1,8.1,56,0.04,CLR,SKC,0.06,WeatherDisplay:10.37,2013-02-13 09:17:00,
2013-02-13 04:18:00,43.9,29.2,27.73,SE,135,8.1,0.0,56,0.04,CLR,SKC,0.06,WeatherDisplay:10.37,2013-02-13 09:18:00,
2013-02-13 04:22:00,44.1,28.9,27.72,SE,135,9.2,9.2,55,0.04,CLR,SKC,0.06,WeatherDisplay:10.37,2013-02-13 09:22:00,
2013-02-13 04:23:00,44.1,28.9,27.72,SE,135,4.6,4.6,55,0.04,CLR,SKC,0.06,WeatherDisplay:10.37,2013-02-13 09:23:00,
2013-02-13 04:27:00,43.9,28.7,27.71,South,180,5.8,5.8,55,0.04,CLR,SKC,0.06,WeatherDisplay:10.37,2013-02-13 09:27:00,
2013-02-13 04:28:00,43.9,28.7,27.72,SW,225,5.8,5.8,55,0.04,CLR,SKC,0.06,WeatherDisplay:10.37,2013-02-13 09:28:00,
2013-02-13 04:29:00,44.1,28.9,27.72,SE,135,5.8,5.8,55,0.04,CLR,SKC,0.06,WeatherDisplay:10.37,2013-02-13 09:29:00,
2013-02-13 04:32:00,44.1,28.9,27.72,SE,135,2.3,0.0,55,0.02,CLR,SKC,0.06,WeatherDisplay:10.37,2013-02-13 09:32:00,
2013-02-13 04:33:00,44.1,28.9,27.73,SE,135,0.0,0.0,55,0.02,CLR,SKC,0.06,WeatherDisplay:10.37,2013-02-13 09:33:00,
2013-02-13 04:34:00,44.1,29.4,27.73,SE,135,0.0,0.0,56,0.02,CLR,SKC,0.06,WeatherDisplay:10.37,2013-02-13 09:34:00,
2013-02-13 04:37:00,43.9,29.6,27.73,West,270,3.5,3.5,57,0.01,CLR,SKC,0.06,WeatherDisplay:10.37,2013-02-13 09:37:00,
2013-02-13 04:38:00,43.7,29.5,27.73,West,270,3.5,0.0,57,0.01,CLR,SKC,0.06,WeatherDisplay:10.37,2013-02-13 09:38:00,
2013-02-13 04:39:00,43.7,29.5,27.72,SW,225,5.8,0.0,57,0.01,CLR,SKC,0.06,WeatherDisplay:10.37,2013-02-13 09:39:00,
2013-02-13 04:42:00,43.9,29.6,27.71,SE,135,5.8,0.0,57,0.01,CLR,SKC,0.06,WeatherDisplay:10.37,2013-02-13 09:42:00,
2013-02-13 04:43:00,43.9,29.6,27.72,South,180,4.6,4.6,57,0.01,CLR,SKC,0.06,WeatherDisplay:10.37,2013-02-13 09:43:00,
2013-02-13 04:44:00,43.9,29.6,27.72,South,180,4.6,4.6,57,0.01,CLR,SKC,0.06,WeatherDisplay:10.37,2013-02-13 09:44:00,
2013-02-13 04:47:00,44.1,29.8,27.71,SE,135,4.6,0.0,57,0.00,CLR,SKC,0.06,WeatherDisplay:10.37,2013-02-13 09:47:00,
2013-02-13 04:48:00,44.1,29.8,27.71,South,180,3.5,3.5,57,0.00,CLR,SKC,0.06,WeatherDisplay:10.37,2013-02-13 09:48:00,
2013-02-13 04:50:00,44.1,29.8,27.71,South,180,1.1,0.0,57,0.00,CLR,SKC,0.06,WeatherDisplay:10.37,2013-02-13 09:50:00,
2013-02-13 04:53:00,43.9,29.6,27.71,SW,225,4.6,4.6,57,0.00,CLR,SKC,0.06,WeatherDisplay:10.37,2013-02-13 09:53:00,
2013-02-13 04:55:00,43.9,30.0,27.71,South,180,0.0,0.0,58,0.00,CLR,SKC,0.06,WeatherDisplay:10.37,2013-02-13 09:55:00,
2013-02-13 04:58:00,44.1,30.2,27.70,South,180,0.0,0.0,58,0.00,CLR,SKC,0.06,WeatherDisplay:10.37,2013-02-13 09:58:00,
2013-02-13 04:59:00,44.1,30.2,27.71,South,180,0.0,0.0,58,0.00,CLR,SKC,0.06,WeatherDisplay:10.37,2013-02-13 09:59:00,
2013-02-13 05:00:00,44.1,30.2,27.71,South,180,0.0,0.0,58,0.00,CLR,SKC,0.06,WeatherDisplay:10.37,2013-02-13 10:00:00,
2013-02-13 05:03:00,44.1,30.2,27.71,South,180,0.0,0.0,58,0.00,CLR,SKC,0.06,WeatherDisplay:10.37,2013-02-13 10:03:00,
2013-02-13 05:04:00,44.1,30.2,27.71,South,180,0.0,0.0,58,0.00,CLR,SKC,0.06,WeatherDisplay:10.37,2013-02-13 10:04:00,
2013-02-13 05:05:00,44.1,30.2,27.72,South,180,0.0,0.0,58,0.00,CLR,SKC,0.06,WeatherDisplay:10.37,2013-02-13 10:05:00,
2013-02-13 05:08:00,43.9,30.9,27.71,West,270,0.0,0.0,60,0.00,CLR,SKC,0.06,WeatherDisplay:10.37,2013-02-13 10:08:00,
2013-02-13 05:09:00,43.7,30.7,27.71,South,180,0.0,0.0,60,0.00,CLR,SKC,0.06,WeatherDisplay:10.37,2013-02-13 10:09:00,
2013-02-13 05:10:00,43.7,30.7,27.71,NW,315,0.0,0.0,60,0.00,CLR,SKC,0.06,WeatherDisplay:10.37,2013-02-13 10:10:00,
2013-02-13 05:13:00,43.9,31.3,27.70,South,180,3.5,0.0,61,0.00,CLR,SKC,0.06,WeatherDisplay:10.37,2013-02-13 10:13:00,
2013-02-13 05:14:00,44.1,31.5,27.70,South,180,2.3,0.0,61,0.00,CLR,SKC,0.06,WeatherDisplay:10.37,2013-02-13 10:14:00,
2013-02-13 05:15:00,44.1,31.5,27.70,SW,225,1.1,0.0,61,0.00,CLR,SKC,0.06,WeatherDisplay:10.37,2013-02-13 10:15:00,
2013-02-13 05:18:00,44.1,31.5,27.69,SE,135,5.8,0.0,61,0.00,CLR,SKC,0.06,WeatherDisplay:10.37,2013-02-13 10:18:00,
2013-02-13 05:20:00,44.2,31.6,27.70,SE,135,0.0,0.0,61,0.00,CLR,SKC,0.06,WeatherDisplay:10.37,2013-02-13 10:20:00,
2013-02-13 05:21:00,44.2,31.6,27.70,South,180,0.0,0.0,61,0.00,CLR,SKC,0.06,WeatherDisplay:10.37,2013-02-13 10:21:00,
2013-02-13 05:23:00,44.6,31.6,27.70,South,180,3.5,3.5,60,0.00,CLR,SKC,0.06,WeatherDisplay:10.37,2013-02-13 10:23:00,
2013-02-13 05:25:00,44.8,31.7,27.71,SW,225,3.5,3.5,60,0.00,CLR,SKC,0.06,WeatherDisplay:10.37,2013-02-13 10:25:00,
2013-02-13 05:26:00,44.8,31.7,27.71,SW,225,3.5,3.5,60,0.00,CLR,SKC,0.06,WeatherDisplay:10.37,2013-02-13 10:26:00,
2013-02-13 05:28:00,44.8,31.7,27.71,NE,45,1.1,0.0,60,0.00,CLR,SKC,0.06,WeatherDisplay:10.37,2013-02-13 10:28:00,
2013-02-13 05:30:00,44.8,31.7,27.69,West,270,4.6,4.6,60,0.00,CLR,SKC,0.06,WeatherDisplay:10.37,2013-02-13 10:30:00,
2013-02-13 05:31:00,44.4,31.4,27.70,South,180,3.5,0.0,60,0.00,CLR,SKC,0.06,WeatherDisplay:10.37,2013-02-13 10:31:00,
2013-02-13 05:34:00,44.8,31.7,27.70,South,180,5.8,5.8,60,0.00,CLR,SKC,0.06,WeatherDisplay:10.37,2013-02-13 10:34:00,
2013-02-13 05:35:00,45.0,31.5,27.70,NE,45,5.8,0.0,59,0.00,CLR,SKC,0.06,WeatherDisplay:10.37,2013-02-13 10:35:00,
2013-02-13 05:36:00,45.0,31.5,27.69,West,270,3.5,3.5,59,0.00,CLR,SKC,0.06,WeatherDisplay:10.37,2013-02-13 10:36:00,
2013-02-13 05:39:00,45.3,31.4,27.68,SE,135,4.6,0.0,58,0.00,CLR,SKC,0.06,WeatherDisplay:10.37,2013-02-13 10:39:00,
2013-02-13 05:40:00,45.1,31.7,27.68,SE,135,0.0,1.6,59,0.00,CLR,SKC,0.06,WeatherDisplay:10.37,2013-02-13 10:40:00,
2013-02-13 05:41:00,45.1,31.7,27.68,SE,135,3.5,3.5,59,0.00,CLR,SKC,0.06,WeatherDisplay:10.37,2013-02-13 10:41:00,
2013-02-13 05:44:00,45.1,31.7,27.69,WNW,292,4.6,4.6,59,0.00,CLR,SKC,0.06,WeatherDisplay:10.37,2013-02-13 10:44:00,
2013-02-13 05:46:00,45.1,31.7,27.68,West,270,5.8,5.8,59,0.00,CLR,SKC,0.06,WeatherDisplay:10.37,2013-02-13 10:46:00,
2013-02-13 05:49:00,45.3,31.8,27.68,North,0,5.8,5.8,59,0.00,CLR,SKC,0.06,WeatherDisplay:10.37,2013-02-13 10:49:00,
2013-02-13 05:51:00,45.3,31.4,27.68,NE,45,5.8,5.8,58,0.00,CLR,SKC,0.06,WeatherDisplay:10.37,2013-02-13 10:51:00,
2013-02-13 05:54:00,45.9,31.5,27.68,South,180,6.9,6.9,57,0.00,CLR,SKC,0.06,WeatherDisplay:10.37,2013-02-13 10:54:00,
2013-02-13 05:56:00,46.0,31.2,27.68,West,270,3.5,3.5,56,0.00,CLR,SKC,0.06,WeatherDisplay:10.37,2013-02-13 10:56:00,
2013-02-13 05:59:00,46.2,30.9,27.68,SE,135,6.9,0.0,55,0.00,CLR,SKC,0.06,WeatherDisplay:10.37,2013-02-13 10:59:00,
2013-02-13 06:01:00,46.2,30.9,27.69,SE,135,0.0,0.0,55,0.00,CLR,SKC,0.06,WeatherDisplay:10.37,2013-02-13 11:01:00,
2013-02-13 06:02:00,46.2,30.9,27.69,SE,135,0.0,0.0,55,0.00,CLR,SKC,0.06,WeatherDisplay:10.37,2013-02-13 11:02:00,
2013-02-13 06:04:00,46.2,30.9,27.69,SE,135,0.0,0.0,55,0.00,CLR,SKC,0.06,WeatherDisplay:10.37,2013-02-13 11:04:00,
2013-02-13 06:06:00,46.2,30.9,27.68,SE,135,0.0,0.0,55,0.00,CLR,SKC,0.06,WeatherDisplay:10.37,2013-02-13 11:06:00,
2013-02-13 06:07:00,46.2,30.9,27.68,SE,135,0.0,0.0,55,0.00,CLR,SKC,0.06,WeatherDisplay:10.37,2013-02-13 11:07:00,
2013-02-13 06:10:00,46.0,30.8,27.68,North,0,3.5,3.5,55,0.00,CLR,SKC,0.06,WeatherDisplay:10.37,2013-02-13 11:10:00,
2013-02-13 06:11:00,46.2,30.9,27.67,West,270,3.5,0.0,55,0.00,CLR,SKC,0.06,WeatherDisplay:10.37,2013-02-13 11:11:00,
2013-02-13 06:12:00,46.2,30.9,27.67,West,270,4.6,0.0,55,0.00,CLR,SKC,0.06,WeatherDisplay:10.37,2013-02-13 11:12:00,
2013-02-13 06:15:00,46.0,31.2,27.67,West,270,4.6,4.6,56,0.00,CLR,SKC,0.06,WeatherDisplay:10.37,2013-02-13 11:15:00,
2013-02-13 06:17:00,46.0,30.8,27.68,SW,225,8.1,8.1,55,0.00,CLR,SKC,0.06,WeatherDisplay:10.37,2013-02-13 11:17:00,
2013-02-13 06:20:00,46.2,30.9,27.68,SW,225,3.5,3.5,55,0.00,CLR,SKC,0.06,WeatherDisplay:10.37,2013-02-13 11:20:00,
2013-02-13 06:22:00,46.4,31.1,27.68,North,0,6.9,6.9,55,0.00,CLR,SKC,0.06,WeatherDisplay:10.37,2013-02-13 11:22:00,
2013-02-13 06:26:00,46.0,31.6,27.67,NW,315,3.5,3.5,57,0.00,CLR,SKC,0.06,WeatherDisplay:10.37,2013-02-13 11:26:00,
2013-02-13 06:27:00,45.9,31.9,27.68,NW,315,3.5,3.5,58,0.00,CLR,SKC,0.06,WeatherDisplay:10.37,2013-02-13 11:27:00,
2013-02-13 06:31:00,45.7,31.7,27.68,NW,315,8.1,0.0,58,0.00,CLR,SKC,0.06,WeatherDisplay:10.37,2013-02-13 11:31:00,
2013-02-13 06:32:00,45.7,31.7,27.68,SSE,158,6.9,0.0,58,0.00,CLR,SKC,0.06,WeatherDisplay:10.37,2013-02-13 11:32:00,
2013-02-13 06:33:00,45.7,31.7,27.68,SSE,158,2.3,0.0,58,0.00,CLR,SKC,0.06,WeatherDisplay:10.37,2013-02-13 11:33:00,
2013-02-13 06:36:00,45.9,31.9,27.69,SW,225,5.8,5.8,58,0.00,CLR,SKC,0.06,WeatherDisplay:10.37,2013-02-13 11:36:00,
2013-02-13 06:37:00,45.7,32.2,27.69,SW,225,5.8,5.8,59,0.00,CLR,SKC,0.06,WeatherDisplay:10.37,2013-02-13 11:37:00,
2013-02-13 06:38:00,45.7,32.2,27.69,SW,225,5.8,5.8,59,0.00,CLR,SKC,0.06,WeatherDisplay:10.37,2013-02-13 11:38:00,
2013-02-13 06:41:00,46.0,31.2,27.68,South,180,4.6,4.6,56,0.00,CLR,SKC,0.06,WeatherDisplay:10.37,2013-02-13 11:41:00,
2013-02-13 06:42:00,46.2,30.9,27.68,SE,135,9.2,9.2,55,0.00,CLR,SKC,0.06,WeatherDisplay:10.37,2013-02-13 11:42:00,
2013-02-13 06:43:00,46.2,30.9,27.68,SE,135,9.2,9.2,55,0.00,CLR,SKC,0.06,WeatherDisplay:10.37,2013-02-13 11:43:00,
2013-02-13 06:46:00,46.4,30.6,27.69,SW,225,8.1,8.1,54,0.00,CLR,SKC,0.06,WeatherDisplay:10.37,2013-02-13 11:46:00,
2013-02-13 06:48:00,46.6,30.8,27.70,South,180,3.5,3.8,54,0.00,CLR,SKC,0.06,WeatherDisplay:10.37,2013-02-13 11:48:00,
2013-02-13 06:52:00,46.8,30.5,27.69,SE,135,5.8,5.8,53,0.00,CLR,SKC,0.06,WeatherDisplay:10.37,2013-02-13 11:52:00,
2013-02-13 06:53:00,46.8,30.0,27.68,South,180,8.1,8.1,52,0.00,CLR,SKC,0.06,WeatherDisplay:10.37,2013-02-13 11:53:00,
2013-02-13 06:57:00,46.8,29.6,27.69,SE,135,5.8,5.8,51,0.00,CLR,SKC,0.06,WeatherDisplay:10.37,2013-02-13 11:57:00,
2013-02-13 06:58:00,46.8,29.1,27.68,SE,135,8.1,8.1,50,0.00,CLR,SKC,0.06,WeatherDisplay:10.37,2013-02-13 11:58:00,
2013-02-13 07:02:00,46.6,28.9,27.68,SE,135,12.7,12.7,50,0.00,CLR,SKC,0.06,WeatherDisplay:10.37,2013-02-13 12:02:00,
2013-02-13 07:03:00,46.6,28.9,27.69,SE,135,12.7,12.7,50,0.00,CLR,SKC,0.06,WeatherDisplay:10.37,2013-02-13 12:03:00,
2013-02-13 07:07:00,46.6,28.9,27.69,SE,135,12.7,12.7,50,0.00,CLR,SKC,0.06,WeatherDisplay:10.37,2013-02-13 12:07:00,
2013-02-13 07:08:00,46.2,30.9,27.69,West,270,12.7,0.0,55,0.00,CLR,SKC,0.06,WeatherDisplay:10.37,2013-02-13 12:08:00,
2013-02-13 07:09:00,46.0,30.8,27.70,NE,45,12.7,0.0,55,0.00,CLR,SKC,0.06,WeatherDisplay:10.37,2013-02-13 12:09:00,
2013-02-13 07:13:00,45.7,31.3,27.70,West,270,4.6,0.0,57,0.00,CLR,SKC,0.06,WeatherDisplay:10.37,2013-02-13 12:13:00,
2013-02-13 07:14:00,45.7,31.3,27.70,West,270,3.5,3.5,57,0.00,CLR,SKC,0.06,WeatherDisplay:10.37,2013-02-13 12:14:00,
2013-02-13 07:17:00,45.7,31.3,27.69,SSE,158,3.5,3.5,57,0.00,CLR,SKC,0.06,WeatherDisplay:10.37,2013-02-13 12:17:00,
2013-02-13 07:18:00,45.7,31.3,27.69,SE,135,4.6,4.6,57,0.00,CLR,SKC,0.06,WeatherDisplay:10.37,2013-02-13 12:18:00,
2013-02-13 07:19:00,45.9,31.5,27.68,West,270,5.8,5.8,57,0.00,CLR,SKC,0.06,WeatherDisplay:10.37,2013-02-13 12:19:00,
2013-02-13 07:23:00,46.2,30.9,27.69,SSE,158,5.8,5.8,55,0.00,CLR,SKC,0.06,WeatherDisplay:10.37,2013-02-13 12:23:00,
2013-02-13 07:24:00,46.2,30.5,27.69,South,180,4.6,5.4,54,0.00,CLR,SKC,0.06,WeatherDisplay:10.37,2013-02-13 12:24:00,
2013-02-13 07:28:00,46.6,30.8,27.68,South,180,8.1,8.1,54,0.00,CLR,SKC,0.06,WeatherDisplay:10.37,2013-02-13 12:28:00,
2013-02-13 07:29:00,46.8,31.0,27.68,West,270,10.4,10.4,54,0.00,CLR,SKC,0.06,WeatherDisplay:10.37,2013-02-13 12:29:00,
2013-02-13 07:33:00,46.6,31.3,27.67,NW,315,5.8,5.8,55,0.00,CLR,SKC,0.06,WeatherDisplay:10.37,2013-02-13 12:33:00,
2013-02-13 07:34:00,46.8,31.4,27.68,SE,135,5.8,5.8,55,0.00,CLR,SKC,0.06,WeatherDisplay:10.37,2013-02-13 12:34:00,
2013-02-13 07:39:00,47.1,30.9,27.69,SW,225,10.4,0.0,53,0.00,CLR,SKC,0.06,WeatherDisplay:10.37,2013-02-13 12:39:00,
2013-02-13 07:40:00,47.1,30.9,27.69,SW,225,3.5,3.5,53,0.00,CLR,SKC,0.06,WeatherDisplay:10.37,2013-02-13 12:40:00,
2013-02-13 07:44:00,47.1,30.4,27.68,SW,225,10.4,10.4,52,0.00,CLR,SKC,0.06,WeatherDisplay:10.37,2013-02-13 12:44:00,
2013-02-13 07:45:00,47.1,30.4,27.68,West,270,10.4,10.4,52,0.00,CLR,SKC,0.06,WeatherDisplay:10.37,2013-02-13 12:45:00,
2013-02-13 07:49:00,47.1,29.4,27.69,South,180,15.0,15.0,50,0.00,CLR,SKC,0.06,WeatherDisplay:10.37,2013-02-13 12:49:00,
2013-02-13 07:50:00,47.3,29.6,27.69,SE,135,15.0,15.0,50,0.00,CLR,SKC,0.06,WeatherDisplay:10.37,2013-02-13 12:50:00,
2013-02-13 07:54:00,47.3,29.6,27.68,South,180,12.7,12.7,50,0.00,CLR,SKC,0.06,WeatherDisplay:10.37,2013-02-13 12:54:00,
2013-02-13 07:55:00,47.3,29.6,27.68,NW,315,10.4,0.0,50,0.00,CLR,SKC,0.06,WeatherDisplay:10.37,2013-02-13 12:55:00,
2013-02-13 07:59:00,47.3,29.6,27.67,NE,45,8.1,8.1,50,0.00,CLR,SKC,0.06,WeatherDisplay:10.37,2013-02-13 12:59:00,
2013-02-13 08:00:00,47.3,29.6,27.68,NE,45,5.8,5.8,50,0.00,CLR,SKC,0.06,WeatherDisplay:10.37,2013-02-13 13:00:00,
2013-02-13 08:01:00,47.3,29.6,27.68,NE,45,3.5,3.5,50,0.00,CLR,SKC,0.06,WeatherDisplay:10.37,2013-02-13 13:01:00,
2013-02-13 08:05:00,47.3,29.6,27.67,NE,45,3.5,3.5,50,0.00,CLR,SKC,0.06,WeatherDisplay:10.37,2013-02-13 13:05:00,
2013-02-13 08:06:00,47.3,29.1,27.68,SE,135,14.5,14.5,49,0.00,CLR,SKC,0.06,WeatherDisplay:10.37,2013-02-13 13:06:00,
2013-02-13 08:10:00,47.5,29.3,27.69,NE,45,6.9,6.9,49,0.00,CLR,SKC,0.06,WeatherDisplay:10.37,2013-02-13 13:10:00,
2013-02-13 08:11:00,47.5,29.7,27.69,West,270,15.0,0.0,50,0.00,CLR,SKC,0.06,WeatherDisplay:10.37,2013-02-13 13:11:00,
2013-02-13 08:15:00,47.5,29.7,27.68,South,180,15.0,15.0,50,0.00,CLR,SKC,0.06,WeatherDisplay:10.37,2013-02-13 13:15:00,
2013-02-13 08:16:00,47.5,29.7,27.68,South,180,4.6,4.6,50,0.00,CLR,SKC,0.06,WeatherDisplay:10.37,2013-02-13 13:16:00,
2013-02-13 08:20:00,47.5,28.7,27.69,East,90,15.0,15.0,48,0.00,CLR,SKC,0.06,WeatherDisplay:10.37,2013-02-13 13:20:00,
2013-02-13 08:21:00,47.5,29.3,27.68,East,90,17.3,17.3,49,0.00,CLR,SKC,0.06,WeatherDisplay:10.37,2013-02-13 13:21:00,
2013-02-13 08:25:00,47.5,29.7,27.68,SE,135,9.2,9.2,50,0.00,CLR,SKC,0.06,WeatherDisplay:10.37,2013-02-13 13:25:00,
2013-02-13 08:26:00,47.5,29.7,27.68,SE,135,8.1,8.1,50,0.00,CLR,SKC,0.06,WeatherDisplay:10.37,2013-02-13 13:26:00,
2013-02-13 08:27:00,47.5,29.3,27.68,SE,135,8.1,8.1,49,0.00,CLR,SKC,0.06,WeatherDisplay:10.37,2013-02-13 13:27:00,
2013-02-13 08:31:00,47.7,29.4,27.70,SE,135,10.4,10.4,49,0.00,CLR,SKC,0.06,WeatherDisplay:10.37,2013-02-13 13:31:00,
2013-02-13 08:32:00,47.7,29.4,27.69,South,180,13.8,13.8,49,0.00,CLR,SKC,0.06,WeatherDisplay:10.37,2013-02-13 13:32:00,
2013-02-13 08:36:00,47.8,29.6,27.69,SE,135,12.7,12.7,49,0.00,CLR,SKC,0.06,WeatherDisplay:10.37,2013-02-13 13:36:00,
2013-02-13 08:37:00,47.8,29.6,27.69,South,180,12.7,12.7,49,0.00,CLR,SKC,0.06,WeatherDisplay:10.37,2013-02-13 13:37:00,
2013-02-13 08:41:00,47.7,29.4,27.69,SE,135,10.4,10.4,49,0.00,CLR,SKC,0.06,WeatherDisplay:10.37,2013-02-13 13:41:00,
2013-02-13 08:42:00,47.7,28.9,27.70,SE,135,10.4,10.4,48,0.00,CLR,SKC,0.06,WeatherDisplay:10.37,2013-02-13 13:42:00,
2013-02-13 08:43:00,47.7,28.9,27.70,SE,135,8.1,8.1,48,0.00,CLR,SKC,0.06,WeatherDisplay:10.37,2013-02-13 13:43:00,
2013-02-13 08:46:00,47.5,29.3,27.69,SE,135,9.2,9.2,49,0.00,CLR,SKC,0.06,WeatherDisplay:10.37,2013-02-13 13:46:00,
2013-02-13 08:47:00,47.5,29.3,27.70,SE,135,8.1,8.1,49,0.00,CLR,SKC,0.06,WeatherDisplay:10.37,2013-02-13 13:47:00,
2013-02-13 08:48:00,47.5,29.3,27.69,SE,135,8.1,8.1,49,0.00,CLR,SKC,0.06,WeatherDisplay:10.37,2013-02-13 13:48:00,
2013-02-13 08:51:00,47.5,29.7,27.70,SE,135,8.1,8.1,50,0.00,CLR,SKC,0.06,WeatherDisplay:10.37,2013-02-13 13:51:00,
2013-02-13 08:52:00,47.3,29.6,27.69,SSE,158,6.9,6.9,50,0.00,CLR,SKC,0.06,WeatherDisplay:10.37,2013-02-13 13:52:00,
2013-02-13 08:53:00,47.3,29.6,27.70,SE,135,12.7,12.7,50,0.00,CLR,SKC,0.06,WeatherDisplay:10.37,2013-02-13 13:53:00,
2013-02-13 08:56:00,47.3,29.6,27.70,SE,135,8.1,8.1,50,0.00,CLR,SKC,0.06,WeatherDisplay:10.37,2013-02-13 13:56:00,
2013-02-13 08:57:00,47.3,30.1,27.70,ESE,112,9.2,9.2,51,0.00,CLR,SKC,0.06,WeatherDisplay:10.37,2013-02-13 13:57:00,
2013-02-13 08:58:00,47.3,30.1,27.70,SE,135,9.2,9.2,51,0.00,CLR,SKC,0.06,WeatherDisplay:10.37,2013-02-13 13:58:00,
2013-02-13 09:01:00,47.3,30.1,27.70,SE,135,10.4,10.4,51,0.00,CLR,SKC,0.06,WeatherDisplay:10.37,2013-02-13 14:01:00,
2013-02-13 09:02:00,47.3,30.1,27.71,SE,135,10.4,10.4,51,0.00,CLR,SKC,0.06,WeatherDisplay:10.37,2013-02-13 14:02:00,
2013-02-13 09:03:00,47.3,30.1,27.71,SE,135,10.4,10.4,51,0.00,CLR,SKC,0.06,WeatherDisplay:10.37,2013-02-13 14:03:00,
2013-02-13 09:07:00,47.3,30.1,27.72,SE,135,10.4,10.4,51,0.00,CLR,SKC,0.06,WeatherDisplay:10.37,2013-02-13 14:07:00,
2013-02-13 09:08:00,47.3,30.5,27.71,SE,135,11.5,11.5,52,0.00,CLR,SKC,0.06,WeatherDisplay:10.37,2013-02-13 14:08:00,
2013-02-13 09:12:00,47.1,30.9,27.71,SE,135,6.9,6.9,53,0.00,CLR,SKC,0.06,WeatherDisplay:10.37,2013-02-13 14:12:00,
2013-02-13 09:13:00,47.1,30.9,27.71,SE,135,5.8,5.8,53,0.00,CLR,SKC,0.06,WeatherDisplay:10.37,2013-02-13 14:13:00,
2013-02-13 09:17:00,47.1,31.3,27.71,SE,135,6.9,6.9,54,0.00,CLR,SKC,0.06,WeatherDisplay:10.37,2013-02-13 14:17:00,
2013-02-13 09:18:00,47.1,30.9,27.70,SE,135,12.7,12.7,53,0.00,CLR,SKC,0.06,WeatherDisplay:10.37,2013-02-13 14:18:00,
2013-02-13 09:19:00,47.1,30.9,27.70,SE,135,8.1,8.1,53,0.00,CLR,SKC,0.06,WeatherDisplay:10.37,2013-02-13 14:19:00,
2013-02-13 09:22:00,47.1,30.9,27.70,South,180,8.1,8.1,53,0.00,CLR,SKC,0.06,WeatherDisplay:10.37,2013-02-13 14:22:00,
2013-02-13 09:23:00,47.1,30.9,27.70,South,180,8.1,8.1,53,0.00,CLR,SKC,0.06,WeatherDisplay:10.37,2013-02-13 14:23:00,
2013-02-13 09:24:00,47.1,30.9,27.70,SSE,158,6.9,6.9,53,0.00,CLR,SKC,0.06,WeatherDisplay:10.37,2013-02-13 14:24:00,
2013-02-13 09:27:00,47.1,30.9,27.70,SE,135,10.4,10.4,53,0.00,CLR,SKC,0.06,WeatherDisplay:10.37,2013-02-13 14:27:00,
2013-02-13 09:29:00,47.1,30.9,27.70,SE,135,5.8,5.8,53,0.00,CLR,SKC,0.06,WeatherDisplay:10.37,2013-02-13 14:29:00,
2013-02-13 09:32:00,47.1,30.9,27.70,ENE,68,13.8,13.8,53,0.00,CLR,SKC,0.06,WeatherDisplay:10.37,2013-02-13 14:32:00,
2013-02-13 09:34:00,47.1,30.9,27.70,SW,225,10.4,10.4,53,0.00,CLR,SKC,0.06,WeatherDisplay:10.37,2013-02-13 14:34:00,
2013-02-13 09:37:00,47.1,30.9,27.70,SE,135,5.8,5.8,53,0.00,CLR,SKC,0.06,WeatherDisplay:10.37,2013-02-13 14:37:00,
2013-02-13 09:38:00,47.1,30.9,27.70,SE,135,5.8,5.8,53,0.00,CLR,SKC,0.06,WeatherDisplay:10.37,2013-02-13 14:38:00,
2013-02-13 09:39:00,47.3,31.0,27.70,SSW,202,6.9,6.9,53,0.00,CLR,SKC,0.06,WeatherDisplay:10.37,2013-02-13 14:39:00,
2013-02-13 09:43:00,47.5,31.2,27.70,South,180,6.9,6.9,53,0.00,CLR,SKC,0.06,WeatherDisplay:10.37,2013-02-13 14:43:00,
2013-02-13 09:44:00,47.5,31.6,27.70,South,180,5.8,5.8,54,0.00,CLR,SKC,0.06,WeatherDisplay:10.37,2013-02-13 14:44:00,
2013-02-13 09:45:00,47.5,31.2,27.71,SE,135,5.8,5.8,53,0.00,CLR,SKC,0.06,WeatherDisplay:10.37,2013-02-13 14:45:00,
2013-02-13 09:48:00,47.5,31.2,27.70,SE,135,8.1,8.1,53,0.00,CLR,SKC,0.06,WeatherDisplay:10.37,2013-02-13 14:48:00,
2013-02-13 09:50:00,47.5,31.2,27.70,SW,225,5.8,5.8,53,0.00,CLR,SKC,0.06,WeatherDisplay:10.37,2013-02-13 14:50:00,
2013-02-13 09:53:00,47.5,31.6,27.70,South,180,1.1,0.0,54,0.00,CLR,SKC,0.06,WeatherDisplay:10.37,2013-02-13 14:53:00,
2013-02-13 09:55:00,47.7,31.8,27.70,SW,225,5.8,5.8,54,0.00,CLR,SKC,0.06,WeatherDisplay:10.37,2013-02-13 14:55:00,
2013-02-13 09:58:00,47.7,31.8,27.70,SE,135,5.8,5.8,54,0.00,CLR,SKC,0.06,WeatherDisplay:10.37,2013-02-13 14:58:00,
2013-02-13 10:00:00,47.7,31.4,27.70,SE,135,5.8,5.8,53,0.00,CLR,SKC,0.06,WeatherDisplay:10.37,2013-02-13 15:00:00,
2013-02-13 10:03:00,47.7,31.4,27.70,SE,135,4.6,4.6,53,0.00,CLR,SKC,0.06,WeatherDisplay:10.37,2013-02-13 15:03:00,
2013-02-13 10:05:00,47.7,31.4,27.70,SE,135,4.6,4.6,53,0.00,CLR,SKC,0.06,WeatherDisplay:10.37,2013-02-13 15:05:00,
2013-02-13 10:08:00,47.3,31.5,27.70,SSE,158,4.6,5.4,54,0.00,CLR,SKC,0.06,WeatherDisplay:10.37,2013-02-13 15:08:00,
2013-02-13 10:09:00,47.3,31.5,27.70,SSE,158,9.2,9.2,54,0.00,CLR,SKC,0.06,WeatherDisplay:10.37,2013-02-13 15:09:00,
2013-02-13 10:10:00,47.3,31.0,27.70,SE,135,9.2,9.2,53,0.00,CLR,SKC,0.06,WeatherDisplay:10.37,2013-02-13 15:10:00,
2013-02-13 10:14:00,47.1,31.3,27.70,South,180,4.6,4.6,54,0.00,CLR,SKC,0.06,WeatherDisplay:10.37,2013-02-13 15:14:00,
2013-02-13 10:15:00,47.1,31.3,27.70,South,180,5.8,5.8,54,0.00,CLR,SKC,0.06,WeatherDisplay:10.37,2013-02-13 15:15:00,
2013-02-13 10:19:00,47.3,31.5,27.70,South,180,4.6,4.6,54,0.00,CLR,SKC,0.06,WeatherDisplay:10.37,2013-02-13 15:19:00,
2013-02-13 10:21:00,47.5,31.6,27.71,South,180,3.5,3.5,54,0.00,CLR,SKC,0.06,WeatherDisplay:10.37,2013-02-13 15:21:00,
2013-02-13 10:24:00,47.5,31.6,27.71,SSE,158,3.5,3.5,54,0.00,CLR,SKC,0.06,WeatherDisplay:10.37,2013-02-13 15:24:00,
2013-02-13 10:26:00,47.7,31.8,27.71,South,180,5.8,5.8,54,0.00,CLR,SKC,0.06,WeatherDisplay:10.37,2013-02-13 15:26:00,
2013-02-13 10:29:00,47.8,32.0,27.71,SSW,202,5.8,5.8,54,0.00,CLR,SKC,0.06,WeatherDisplay:10.37,2013-02-13 15:29:00,
2013-02-13 10:31:00,48.0,32.2,27.71,SE,135,5.8,5.8,54,0.00,CLR,SKC,0.06,WeatherDisplay:10.37,2013-02-13 15:31:00,
2013-02-13 10:34:00,48.4,32.0,27.71,South,180,3.5,3.5,53,0.00,CLR,SKC,0.06,WeatherDisplay:10.37,2013-02-13 15:34:00,
2013-02-13 10:36:00,48.6,32.2,27.71,SE,135,4.6,4.6,53,0.00,CLR,SKC,0.06,WeatherDisplay:10.37,2013-02-13 15:36:00,
2013-02-13 10:39:00,48.7,31.9,27.71,SW,225,6.9,6.9,52,0.00,CLR,SKC,0.06,WeatherDisplay:10.37,2013-02-13 15:39:00,
2013-02-13 10:40:00,48.7,31.9,27.71,SW,225,6.9,6.9,52,0.00,CLR,SKC,0.06,WeatherDisplay:10.37,2013-02-13 15:40:00,
2013-02-13 10:41:00,48.9,32.0,27.71,South,180,4.6,4.6,52,0.00,CLR,SKC,0.06,WeatherDisplay:10.37,2013-02-13 15:41:00,
2013-02-13 10:45:00,49.1,31.2,27.71,SSW,202,6.9,6.9,50,0.00,CLR,SKC,0.06,WeatherDisplay:10.37,2013-02-13 15:45:00,
2013-02-13 10:46:00,49.1,31.2,27.71,SSE,158,8.1,8.1,50,0.00,CLR,SKC,0.06,WeatherDisplay:10.37,2013-02-13 15:46:00,
2013-02-13 10:50:00,49.1,30.7,27.70,South,180,10.4,10.4,49,0.00,CLR,SKC,0.06,WeatherDisplay:10.37,2013-02-13 15:50:00,
2013-02-13 10:52:00,49.1,30.7,27.71,South,180,6.9,6.9,49,0.00,CLR,SKC,0.06,WeatherDisplay:10.37,2013-02-13 15:52:00,
2013-02-13 10:55:00,49.1,31.2,27.71,SW,225,6.9,6.9,50,0.00,CLR,SKC,0.06,WeatherDisplay:10.37,2013-02-13 15:55:00,
2013-02-13 10:57:00,49.1,31.2,27.71,South,180,5.8,5.8,50,0.00,CLR,SKC,0.06,WeatherDisplay:10.37,2013-02-13 15:57:00,
2013-02-13 11:00:00,49.1,31.2,27.71,South,180,5.8,5.8,50,0.00,CLR,SKC,0.06,WeatherDisplay:10.37,2013-02-13 16:00:00,
2013-02-13 11:02:00,49.1,31.2,27.71,South,180,4.6,4.6,50,0.00,CLR,SKC,0.06,WeatherDisplay:10.37,2013-02-13 16:02:00,
2013-02-13 11:05:00,49.1,31.2,27.71,South,180,4.6,4.6,50,0.00,CLR,SKC,0.06,WeatherDisplay:10.37,2013-02-13 16:05:00,
2013-02-13 11:07:00,49.1,31.2,27.71,South,180,4.6,4.6,50,0.00,CLR,SKC,0.06,WeatherDisplay:10.37,2013-02-13 16:07:00,
2013-02-13 11:10:00,49.1,31.2,27.71,SSW,202,8.1,8.1,50,0.00,CLR,SKC,0.06,WeatherDisplay:10.37,2013-02-13 16:10:00,
2013-02-13 11:11:00,49.1,31.7,27.71,SW,225,6.9,6.9,51,0.00,CLR,SKC,0.06,WeatherDisplay:10.37,2013-02-13 16:11:00,
2013-02-13 11:12:00,49.3,31.4,27.71,SE,135,4.6,4.6,50,0.00,CLR,SKC,0.06,WeatherDisplay:10.37,2013-02-13 16:12:00,
2013-02-13 11:15:00,49.3,31.9,27.71,SE,135,4.6,4.6,51,0.00,CLR,SKC,0.06,WeatherDisplay:10.37,2013-02-13 16:15:00,
2013-02-13 11:16:00,49.5,32.1,27.71,South,180,4.6,4.6,51,0.00,CLR,SKC,0.06,WeatherDisplay:10.37,2013-02-13 16:16:00,
2013-02-13 11:17:00,49.3,31.4,27.71,SW,225,5.8,5.8,50,0.00,CLR,SKC,0.06,WeatherDisplay:10.37,2013-02-13 16:17:00,
2013-02-13 11:20:00,49.3,30.9,27.72,SE,135,6.9,6.9,49,0.00,CLR,SKC,0.06,WeatherDisplay:10.37,2013-02-13 16:20:00,
2013-02-13 11:22:00,49.3,31.4,27.72,ENE,68,4.6,4.6,50,0.00,CLR,SKC,0.06,WeatherDisplay:10.37,2013-02-13 16:22:00,
2013-02-13 11:26:00,49.3,31.9,27.72,South,180,3.5,3.5,51,0.00,CLR,SKC,0.06,WeatherDisplay:10.37,2013-02-13 16:26:00,
2013-02-13 11:27:00,49.3,31.9,27.72,South,180,5.8,5.8,51,0.00,CLR,SKC,0.06,WeatherDisplay:10.37,2013-02-13 16:27:00,
2013-02-13 11:28:00,49.3,31.9,27.72,SW,225,5.8,5.8,51,0.00,CLR,SKC,0.06,WeatherDisplay:10.37,2013-02-13 16:28:00,
2013-02-13 11:31:00,49.3,31.9,27.73,SW,225,3.5,3.5,51,0.00,CLR,SKC,0.06,WeatherDisplay:10.37,2013-02-13 16:31:00,
2013-02-13 11:32:00,49.1,31.7,27.72,SW,225,3.5,3.5,51,0.00,CLR,SKC,0.06,WeatherDisplay:10.37,2013-02-13 16:32:00,
2013-02-13 11:33:00,49.1,31.7,27.72,South,180,3.5,3.5,51,0.00,CLR,SKC,0.06,WeatherDisplay:10.37,2013-02-13 16:33:00,
2013-02-13 11:36:00,49.1,31.7,27.71,South,180,3.8,3.8,51,0.00,CLR,SKC,0.06,WeatherDisplay:10.37,2013-02-13 16:36:00,
2013-02-13 11:37:00,49.1,31.7,27.71,South,180,3.5,3.5,51,0.00,CLR,SKC,0.06,WeatherDisplay:10.37,2013-02-13 16:37:00,
2013-02-13 11:38:00,49.1,31.7,27.72,SSW,202,3.5,3.5,51,0.00,CLR,SKC,0.06,WeatherDisplay:10.37,2013-02-13 16:38:00,
2013-02-13 11:41:00,49.1,31.7,27.71,West,270,5.8,5.8,51,0.00,CLR,SKC,0.06,WeatherDisplay:10.37,2013-02-13 16:41:00,
2013-02-13 11:42:00,49.1,31.7,27.71,West,270,5.8,5.8,51,0.00,CLR,SKC,0.06,WeatherDisplay:10.37,2013-02-13 16:42:00,
2013-02-13 11:43:00,49.1,32.2,27.71,South,180,3.5,3.5,52,0.00,CLR,SKC,0.06,WeatherDisplay:10.37,2013-02-13 16:43:00,
2013-02-13 11:46:00,49.1,31.7,27.71,South,180,5.8,5.8,51,0.00,CLR,SKC,0.06,WeatherDisplay:10.37,2013-02-13 16:46:00,
2013-02-13 11:47:00,49.1,31.7,27.71,South,180,5.8,5.8,51,0.00,CLR,SKC,0.06,WeatherDisplay:10.37,2013-02-13 16:47:00,
2013-02-13 11:48:00,49.1,31.7,27.71,SW,225,3.5,3.5,51,0.00,CLR,SKC,0.06,WeatherDisplay:10.37,2013-02-13 16:48:00,
2013-02-13 11:52:00,49.1,32.2,27.72,NW,315,5.8,5.8,52,0.00,CLR,SKC,0.06,WeatherDisplay:10.37,2013-02-13 16:52:00,
2013-02-13 11:53:00,48.9,32.5,27.72,SW,225,3.5,3.5,53,0.00,CLR,SKC,0.06,WeatherDisplay:10.37,2013-02-13 16:53:00,
2013-02-13 11:57:00,48.9,33.0,27.72,SW,225,3.5,3.5,54,0.00,CLR,SKC,0.06,WeatherDisplay:10.37,2013-02-13 16:57:00,
2013-02-13 11:58:00,48.9,33.4,27.71,South,180,3.5,0.0,55,0.00,CLR,SKC,0.06,WeatherDisplay:10.37,2013-02-13 16:58:00,
2013-02-13 11:59:00,48.9,33.4,27.71,South,180,3.5,0.0,55,0.00,CLR,SKC,0.06,WeatherDisplay:10.37,2013-02-13 16:59:00,
2013-02-13 12:02:00,48.9,33.0,27.72,South,180,3.8,3.8,54,0.00,CLR,SKC,0.06,WeatherDisplay:10.37,2013-02-13 17:02:00,
2013-02-13 12:03:00,48.9,33.0,27.72,South,180,3.5,3.5,54,0.00,CLR,SKC,0.06,WeatherDisplay:10.37,2013-02-13 17:03:00,
2013-02-13 12:04:00,48.9,33.0,27.72,South,180,3.5,3.5,54,0.00,CLR,SKC,0.06,WeatherDisplay:10.37,2013-02-13 17:04:00,
2013-02-13 12:07:00,48.9,33.0,27.72,South,180,3.5,3.5,54,0.00,CLR,SKC,0.06,WeatherDisplay:10.37,2013-02-13 17:07:00,
2013-02-13 12:08:00,47.8,32.9,27.72,SW,225,4.6,4.6,56,0.00,CLR,SKC,0.06,WeatherDisplay:10.37,2013-02-13 17:08:00,
2013-02-13 12:09:00,48.4,33.4,27.72,South,180,5.8,5.8,56,0.00,CLR,SKC,0.06,WeatherDisplay:10.37,2013-02-13 17:09:00,
2013-02-13 12:12:00,48.4,33.8,27.72,SE,135,8.1,0.0,57,0.00,CLR,SKC,0.06,WeatherDisplay:10.37,2013-02-13 17:12:00,
2013-02-13 12:13:00,48.4,33.8,27.71,SW,225,2.3,2.3,57,0.00,CLR,SKC,0.06,WeatherDisplay:10.37,2013-02-13 17:13:00,
2013-02-13 12:14:00,48.6,34.0,27.71,SW,225,2.3,0.0,57,0.00,CLR,SKC,0.06,WeatherDisplay:10.37,2013-02-13 17:14:00,
2013-02-13 12:18:00,48.6,33.6,27.72,West,270,10.4,10.4,56,0.00,CLR,SKC,0.06,WeatherDisplay:10.37,2013-02-13 17:18:00,
2013-02-13 12:19:00,48.7,34.2,27.72,South,180,7.6,7.6,57,0.00,CLR,SKC,0.06,WeatherDisplay:10.37,2013-02-13 17:19:00,
2013-02-13 12:23:00,48.9,33.0,27.71,South,180,9.2,9.2,54,0.00,CLR,SKC,0.06,WeatherDisplay:10.37,2013-02-13 17:23:00,
2013-02-13 12:24:00,48.9,33.0,27.72,South,180,8.1,8.1,54,0.00,CLR,SKC,0.06,WeatherDisplay:10.37,2013-02-13 17:24:00,
2013-02-13 12:28:00,49.1,32.7,27.71,West,270,5.8,5.8,53,0.00,CLR,SKC,0.06,WeatherDisplay:10.37,2013-02-13 17:28:00,
2013-02-13 12:29:00,49.3,31.9,27.71,NW,315,10.4,10.4,51,0.00,CLR,SKC,0.06,WeatherDisplay:10.37,2013-02-13 17:29:00,
2013-02-13 12:33:00,49.5,32.6,27.71,West,270,3.5,3.5,52,0.00,CLR,SKC,0.06,WeatherDisplay:10.37,2013-02-13 17:33:00,
2013-02-13 12:34:00,49.6,32.2,27.70,NW,315,9.8,9.8,51,0.00,CLR,SKC,0.06,WeatherDisplay:10.37,2013-02-13 17:34:00,
2013-02-13 12:38:00,49.8,31.9,27.71,SW,225,5.8,5.8,50,0.00,CLR,SKC,0.06,WeatherDisplay:10.37,2013-02-13 17:38:00,
2013-02-13 12:39:00,49.8,31.9,27.70,SW,225,5.8,5.8,50,0.00,CLR,SKC,0.06,WeatherDisplay:10.37,2013-02-13 17:39:00,
2013-02-13 12:43:00,50.0,32.1,27.70,SW,225,3.5,3.5,50,0.00,CLR,SKC,0.06,WeatherDisplay:10.37,2013-02-13 17:43:00,
2013-02-13 12:44:00,50.0,32.1,27.71,SW,225,5.8,5.8,50,0.00,CLR,SKC,0.06,WeatherDisplay:10.37,2013-02-13 17:44:00,
2013-02-13 12:45:00,50.0,31.6,27.70,SW,225,5.8,5.8,49,0.00,CLR,SKC,0.06,WeatherDisplay:10.37,2013-02-13 17:45:00,
2013-02-13 12:48:00,50.0,30.5,27.70,SW,225,6.9,6.9,47,0.00,CLR,SKC,0.06,WeatherDisplay:10.37,2013-02-13 17:48:00,
2013-02-13 12:49:00,50.0,31.1,27.70,SW,225,5.8,5.8,48,0.00,CLR,SKC,0.06,WeatherDisplay:10.37,2013-02-13 17:49:00,
2013-02-13 12:50:00,50.0,31.1,27.70,West,270,5.8,5.8,48,0.00,CLR,SKC,0.06,WeatherDisplay:10.37,2013-02-13 17:50:00,
2013-02-13 12:53:00,50.2,30.2,27.70,ENE,68,8.1,8.1,46,0.00,CLR,SKC,0.06,WeatherDisplay:10.37,2013-02-13 17:53:00,
2013-02-13 12:54:00,50.2,30.2,27.70,ENE,68,8.1,8.1,46,0.00,CLR,SKC,0.06,WeatherDisplay:10.37,2013-02-13 17:54:00,
2013-02-13 12:55:00,50.2,30.2,27.70,ENE,68,4.6,4.6,46,0.00,CLR,SKC,0.06,WeatherDisplay:10.37,2013-02-13 17:55:00,
2013-02-13 12:59:00,50.0,28.4,27.70,SE,135,6.9,6.9,43,0.00,CLR,SKC,0.06,WeatherDisplay:10.37,2013-02-13 17:59:00,
2013-02-13 13:00:00,50.0,28.4,27.71,SW,225,8.1,8.1,43,0.00,CLR,SKC,0.06,WeatherDisplay:10.37,2013-02-13 18:00:00,
2013-02-13 13:04:00,49.8,28.2,27.71,SW,225,8.1,8.1,43,0.00,CLR,SKC,0.06,WeatherDisplay:10.37,2013-02-13 18:04:00,
2013-02-13 13:05:00,49.6,28.0,27.71,SW,225,9.2,9.2,43,0.00,CLR,SKC,0.06,WeatherDisplay:10.37,2013-02-13 18:05:00,
2013-02-13 13:06:00,49.6,28.0,27.71,SW,225,9.2,9.2,43,0.00,CLR,SKC,0.06,WeatherDisplay:10.37,2013-02-13 18:06:00,
2013-02-13 13:09:00,49.5,27.9,27.71,West,270,10.4,10.4,43,0.00,CLR,SKC,0.06,WeatherDisplay:10.37,2013-02-13 18:09:00,
2013-02-13 13:10:00,49.3,28.8,27.71,SW,225,10.4,10.4,45,0.00,CLR,SKC,0.06,WeatherDisplay:10.37,2013-02-13 18:10:00,
2013-02-13 13:11:00,49.3,28.8,27.71,SW,225,4.6,4.6,45,0.00,CLR,SKC,0.06,WeatherDisplay:10.37,2013-02-13 18:11:00,
2013-02-13 13:14:00,49.1,28.1,27.71,SW,225,9.2,9.2,44,0.00,CLR,SKC,0.06,WeatherDisplay:10.37,2013-02-13 18:14:00,
2013-02-13 13:15:00,49.1,28.1,27.71,SW,225,9.2,9.2,44,0.00,CLR,SKC,0.06,WeatherDisplay:10.37,2013-02-13 18:15:00,
2013-02-13 13:16:00,49.1,28.1,27.71,West,270,9.2,9.2,44,0.00,CLR,SKC,0.06,WeatherDisplay:10.37,2013-02-13 18:16:00,
2013-02-13 13:19:00,49.1,28.1,27.71,East,90,6.9,6.9,44,0.00,CLR,SKC,0.06,WeatherDisplay:10.37,2013-02-13 18:19:00,
2013-02-13 13:20:00,49.1,28.1,27.71,SW,225,10.4,10.4,44,0.00,CLR,SKC,0.06,WeatherDisplay:10.37,2013-02-13 18:20:00,
2013-02-13 13:21:00,48.9,27.9,27.71,SSW,202,10.4,10.4,44,0.00,CLR,SKC,0.06,WeatherDisplay:10.37,2013-02-13 18:21:00,
2013-02-13 13:24:00,48.9,27.9,27.71,North,0,5.8,5.8,44,0.00,CLR,SKC,0.06,WeatherDisplay:10.37,2013-02-13 18:24:00,
2013-02-13 13:25:00,48.9,27.9,27.70,WSW,248,8.1,8.1,44,0.00,CLR,SKC,0.06,WeatherDisplay:10.37,2013-02-13 18:25:00,
2013-02-13 13:26:00,48.9,28.5,27.71,SE,135,8.1,8.1,45,0.00,CLR,SKC,0.06,WeatherDisplay:10.37,2013-02-13 18:26:00,
2013-02-13 13:29:00,48.9,27.4,27.71,West,270,6.9,6.9,43,0.00,CLR,SKC,0.06,WeatherDisplay:10.37,2013-02-13 18:29:00,
2013-02-13 13:30:00,48.9,27.9,27.71,SW,225,8.1,8.1,44,0.00,CLR,SKC,0.06,WeatherDisplay:10.37,2013-02-13 18:30:00,
2013-02-13 13:31:00,48.9,27.9,27.71,West,270,6.9,6.9,44,0.00,CLR,SKC,0.06,WeatherDisplay:10.37,2013-02-13 18:31:00,
2013-02-13 13:34:00,49.1,28.1,27.72,West,270,5.8,5.8,44,0.00,CLR,SKC,0.06,WeatherDisplay:10.37,2013-02-13 18:34:00,
2013-02-13 13:35:00,49.1,28.1,27.72,SW,225,5.8,5.8,44,0.00,CLR,SKC,0.06,WeatherDisplay:10.37,2013-02-13 18:35:00,
2013-02-13 13:36:00,48.6,27.6,27.71,SW,225,7.6,7.6,44,0.00,CLR,SKC,0.06,WeatherDisplay:10.37,2013-02-13 18:36:00,
2013-02-13 13:39:00,49.3,27.7,27.70,South,180,6.9,6.9,43,0.00,CLR,SKC,0.06,WeatherDisplay:10.37,2013-02-13 18:39:00,
2013-02-13 13:40:00,49.3,27.7,27.71,West,270,5.8,5.8,43,0.00,CLR,SKC,0.06,WeatherDisplay:10.37,2013-02-13 18:40:00,
2013-02-13 13:41:00,49.3,27.7,27.71,SE,135,5.8,5.8,43,0.00,CLR,SKC,0.06,WeatherDisplay:10.37,2013-02-13 18:41:00,
2013-02-13 13:42:00,49.3,27.7,27.71,SE,135,5.8,5.8,43,0.00,CLR,SKC,0.06,WeatherDisplay:10.37,2013-02-13 18:42:00,
2013-02-13 13:44:00,49.3,27.7,27.71,NNE,22,5.8,5.8,43,0.00,CLR,SKC,0.06,WeatherDisplay:10.37,2013-02-13 18:44:00,
2013-02-13 13:45:00,49.3,27.1,27.71,NNW,338,10.4,10.4,42,0.00,CLR,SKC,0.06,WeatherDisplay:10.37,2013-02-13 18:45:00,
2013-02-13 13:47:00,49.3,27.1,27.71,NE,45,9.2,9.2,42,0.00,CLR,SKC,0.06,WeatherDisplay:10.37,2013-02-13 18:47:00,
2013-02-13 13:50:00,49.1,26.4,27.70,SW,225,5.8,5.8,41,0.00,CLR,SKC,0.06,WeatherDisplay:10.37,2013-02-13 18:50:00,
2013-02-13 13:52:00,48.6,25.9,27.71,West,270,4.6,4.6,41,0.00,CLR,SKC,0.06,WeatherDisplay:10.37,2013-02-13 18:52:00,
2013-02-13 13:55:00,48.6,24.7,27.70,NW,315,6.9,6.9,39,0.00,CLR,SKC,0.06,WeatherDisplay:10.37,2013-02-13 18:55:00,
2013-02-13 13:56:00,48.6,24.7,27.70,NW,315,6.9,6.9,39,0.00,CLR,SKC,0.06,WeatherDisplay:10.37,2013-02-13 18:56:00,
2013-02-13 13:57:00,48.9,25.6,27.71,NNW,338,6.9,6.9,40,0.00,CLR,SKC,0.06,WeatherDisplay:10.37,2013-02-13 18:57:00,
2013-02-13 14:00:00,48.7,24.2,27.71,SW,225,9.2,9.2,38,0.00,CLR,SKC,0.06,WeatherDisplay:10.37,2013-02-13 19:00:00,
2013-02-13 14:01:00,48.7,24.2,27.71,SW,225,9.2,9.2,38,0.00,CLR,SKC,0.06,WeatherDisplay:10.37,2013-02-13 19:01:00,
2013-02-13 14:02:00,48.7,24.9,27.70,NW,315,5.8,5.8,39,0.00,CLR,SKC,0.06,WeatherDisplay:10.37,2013-02-13 19:02:00,
2013-02-13 14:05:00,48.2,23.7,27.71,SW,225,5.8,6.0,38,0.00,CLR,SKC,0.06,WeatherDisplay:10.37,2013-02-13 19:05:00,
2013-02-13 14:06:00,48.7,24.2,27.70,NW,315,8.1,8.1,38,0.00,CLR,SKC,0.06,WeatherDisplay:10.37,2013-02-13 19:06:00,
2013-02-13 14:07:00,48.7,24.2,27.71,SE,135,8.1,8.1,38,0.00,CLR,SKC,0.06,WeatherDisplay:10.37,2013-02-13 19:07:00,
2013-02-13 14:08:00,48.7,24.2,27.70,NW,315,4.6,4.6,38,0.00,CLR,SKC,0.06,WeatherDisplay:10.37,2013-02-13 19:08:00,
2013-02-13 14:10:00,48.9,24.4,27.71,West,270,5.8,5.8,38,0.00,CLR,SKC,0.06,WeatherDisplay:10.37,2013-02-13 19:10:00,
2013-02-13 14:12:00,48.9,24.4,27.71,NE,45,3.5,3.5,38,0.00,CLR,SKC,0.06,WeatherDisplay:10.37,2013-02-13 19:12:00,
2013-02-13 14:13:00,48.9,24.4,27.71,North,0,3.5,0.0,38,0.00,CLR,SKC,0.06,WeatherDisplay:10.37,2013-02-13 19:13:00,
2013-02-13 14:16:00,48.9,23.8,27.72,SW,225,5.8,5.8,37,0.00,CLR,SKC,0.06,WeatherDisplay:10.37,2013-02-13 19:16:00,
2013-02-13 14:17:00,48.9,23.8,27.71,SW,225,5.8,5.8,37,0.00,CLR,SKC,0.06,WeatherDisplay:10.37,2013-02-13 19:17:00,
2013-02-13 14:19:00,48.9,23.8,27.73,SW,225,3.5,3.5,37,0.00,CLR,SKC,0.06,WeatherDisplay:10.37,2013-02-13 19:19:00,
2013-02-13 14:21:00,48.9,23.8,27.71,SW,225,3.5,3.5,37,0.00,CLR,SKC,0.06,WeatherDisplay:10.37,2013-02-13 19:21:00,
2013-02-13 14:22:00,48.9,23.8,27.72,SW,225,3.5,3.5,37,0.00,CLR,SKC,0.06,WeatherDisplay:10.37,2013-02-13 19:22:00,
2013-02-13 14:24:00,48.0,23.6,27.72,West,270,4.6,4.6,38,0.00,CLR,SKC,0.06,WeatherDisplay:10.37,2013-02-13 19:24:00,
2013-02-13 14:26:00,47.8,23.4,27.72,SW,225,12.7,12.7,38,0.00,CLR,SKC,0.06,WeatherDisplay:10.37,2013-02-13 19:26:00,
2013-02-13 14:27:00,47.7,22.6,27.72,WSW,248,13.8,13.8,37,0.00,CLR,SKC,0.06,WeatherDisplay:10.37,2013-02-13 19:27:00,
2013-02-13 14:29:00,47.5,23.7,27.72,SE,135,8.1,8.1,39,0.00,CLR,SKC,0.06,WeatherDisplay:10.37,2013-02-13 19:29:00,
2013-02-13 14:31:00,47.1,24.0,27.72,SW,225,11.5,11.5,40,0.00,CLR,SKC,0.06,WeatherDisplay:10.37,2013-02-13 19:31:00,
2013-02-13 14:32:00,47.1,24.0,27.72,SW,225,10.4,10.4,40,0.00,CLR,SKC,0.06,WeatherDisplay:10.37,2013-02-13 19:32:00,
2013-02-13 14:34:00,46.9,24.4,27.71,NW,315,8.1,8.1,41,0.00,CLR,SKC,0.06,WeatherDisplay:10.37,2013-02-13 19:34:00,
2013-02-13 14:36:00,46.8,25.4,27.73,NW,315,11.5,11.5,43,0.00,CLR,SKC,0.06,WeatherDisplay:10.37,2013-02-13 19:36:00,
2013-02-13 14:37:00,46.6,25.3,27.72,West,270,8.1,8.1,43,0.00,CLR,SKC,0.06,WeatherDisplay:10.37,2013-02-13 19:37:00,
2013-02-13 14:38:00,46.6,25.3,27.72,West,270,12.7,12.7,43,0.00,CLR,SKC,0.06,WeatherDisplay:10.37,2013-02-13 19:38:00,
2013-02-13 14:39:00,46.4,25.6,27.72,NW,315,12.7,12.7,44,0.00,CLR,SKC,0.06,WeatherDisplay:10.37,2013-02-13 19:39:00,
2013-02-13 14:42:00,46.0,26.4,27.73,SW,225,8.1,8.1,46,0.00,CLR,SKC,0.06,WeatherDisplay:10.37,2013-02-13 19:42:00,
2013-02-13 14:43:00,46.0,26.4,27.73,SW,225,5.8,5.8,46,0.00,CLR,SKC,0.06,WeatherDisplay:10.37,2013-02-13 19:43:00,
2013-02-13 14:44:00,46.0,26.4,27.73,SW,225,5.8,5.8,46,0.00,CLR,SKC,0.06,WeatherDisplay:10.37,2013-02-13 19:44:00,
2013-02-13 14:47:00,45.9,26.7,27.73,South,180,6.9,6.9,47,0.00,CLR,SKC,0.06,WeatherDisplay:10.37,2013-02-13 19:47:00,
2013-02-13 14:48:00,45.9,26.7,27.73,SW,225,6.9,6.9,47,0.00,CLR,SKC,0.06,WeatherDisplay:10.37,2013-02-13 19:48:00,
2013-02-13 14:49:00,45.9,26.7,27.73,NE,45,5.8,5.8,47,0.00,CLR,SKC,0.06,WeatherDisplay:10.37,2013-02-13 19:49:00,
2013-02-13 14:52:00,45.9,26.7,27.73,South,180,2.3,0.0,47,0.00,CLR,SKC,0.06,WeatherDisplay:10.37,2013-02-13 19:52:00,
2013-02-13 14:53:00,45.9,26.7,27.73,North,0,3.5,3.5,47,0.00,CLR,SKC,0.06,WeatherDisplay:10.37,2013-02-13 19:53:00,
2013-02-13 14:54:00,45.9,26.7,27.73,North,0,5.8,0.0,47,0.00,CLR,SKC,0.06,WeatherDisplay:10.37,2013-02-13 19:54:00,
2013-02-13 14:57:00,45.9,26.7,27.73,West,270,11.5,11.5,47,0.00,CLR,SKC,0.06,WeatherDisplay:10.37,2013-02-13 19:57:00,
2013-02-13 14:58:00,45.9,26.2,27.73,SSE,158,11.5,11.5,46,0.00,CLR,SKC,0.06,WeatherDisplay:10.37,2013-02-13 19:58:00,
2013-02-13 15:00:00,45.9,26.2,27.73,NW,315,10.4,10.4,46,0.00,CLR,SKC,0.06,WeatherDisplay:10.37,2013-02-13 20:00:00,
2013-02-13 15:02:00,45.9,26.2,27.73,NW,315,9.2,9.2,46,0.00,CLR,SKC,0.06,WeatherDisplay:10.37,2013-02-13 20:02:00,
2013-02-13 15:03:00,45.9,26.2,27.73,NW,315,9.2,9.2,46,0.00,CLR,SKC,0.06,WeatherDisplay:10.37,2013-02-13 20:03:00,
2013-02-13 15:05:00,45.9,26.2,27.73,NW,315,9.2,9.2,46,0.00,CLR,SKC,0.06,WeatherDisplay:10.37,2013-02-13 20:05:00,
2013-02-13 15:07:00,45.9,26.2,27.73,South,180,9.2,9.2,46,0.00,CLR,SKC,0.06,WeatherDisplay:10.37,2013-02-13 20:07:00,
2013-02-13 15:08:00,45.9,26.2,27.73,South,180,9.2,9.2,46,0.00,CLR,SKC,0.06,WeatherDisplay:10.37,2013-02-13 20:08:00,
2013-02-13 15:10:00,45.9,26.7,27.73,North,0,6.9,6.9,47,0.00,CLR,SKC,0.06,WeatherDisplay:10.37,2013-02-13 20:10:00,
2013-02-13 15:12:00,45.7,26.6,27.73,SW,225,8.1,8.1,47,0.00,CLR,SKC,0.06,WeatherDisplay:10.37,2013-02-13 20:12:00,
2013-02-13 15:13:00,45.7,26.6,27.73,NW,315,8.1,8.1,47,0.00,CLR,SKC,0.06,WeatherDisplay:10.37,2013-02-13 20:13:00,
2013-02-13 15:15:00,45.5,26.9,27.72,West,270,5.8,5.8,48,0.00,CLR,SKC,0.06,WeatherDisplay:10.37,2013-02-13 20:15:00,
2013-02-13 15:17:00,45.3,27.8,27.73,North,0,5.8,5.8,50,0.00,CLR,SKC,0.06,WeatherDisplay:10.37,2013-02-13 20:17:00,
2013-02-13 15:18:00,45.1,27.6,27.72,NE,45,3.5,3.5,50,0.00,CLR,SKC,0.06,WeatherDisplay:10.37,2013-02-13 20:18:00,
2013-02-13 15:20:00,45.1,27.6,27.72,NE,45,3.5,0.0,50,0.00,CLR,SKC,0.06,WeatherDisplay:10.37,2013-02-13 20:20:00,
2013-02-13 15:23:00,45.0,27.4,27.73,NE,45,1.1,0.0,50,0.00,CLR,SKC,0.06,WeatherDisplay:10.37,2013-02-13 20:23:00,
2013-02-13 15:24:00,45.0,27.9,27.73,West,270,2.2,0.0,51,0.00,CLR,SKC,0.06,WeatherDisplay:10.37,2013-02-13 20:24:00,
2013-02-13 15:25:00,45.0,28.4,27.73,West,270,2.3,2.3,52,0.00,CLR,SKC,0.06,WeatherDisplay:10.37,2013-02-13 20:25:00,
2013-02-13 15:28:00,44.8,28.7,27.73,NW,315,3.5,3.5,53,0.00,CLR,SKC,0.06,WeatherDisplay:10.37,2013-02-13 20:28:00,
2013-02-13 15:29:00,44.6,28.5,27.74,NW,315,3.5,3.5,53,0.00,CLR,SKC,0.06,WeatherDisplay:10.37,2013-02-13 20:29:00,
2013-02-13 15:30:00,44.6,28.5,27.73,NE,45,5.8,0.0,53,0.00,CLR,SKC,0.06,WeatherDisplay:10.37,2013-02-13 20:30:00,
2013-02-13 15:33:00,44.1,28.5,27.74,SW,225,4.6,4.6,54,0.01,RA,SKC,0.07,WeatherDisplay:10.37,2013-02-13 20:33:00,
2013-02-13 15:34:00,44.1,28.5,27.74,SW,225,4.6,4.6,54,0.01,RA,SKC,0.07,WeatherDisplay:10.37,2013-02-13 20:34:00,
2013-02-13 15:35:00,44.2,28.6,27.74,North,0,5.8,5.8,54,0.01,RA,SKC,0.07,WeatherDisplay:10.37,2013-02-13 20:35:00,
2013-02-13 15:38:00,44.1,28.5,27.74,NW,315,3.5,3.5,54,0.01,RA,SKC,0.07,WeatherDisplay:10.37,2013-02-13 20:38:00,
2013-02-13 15:39:00,44.1,28.5,27.74,WSW,248,2.3,0.0,54,0.01,RA,SKC,0.07,WeatherDisplay:10.37,2013-02-13 20:39:00,
2013-02-13 15:40:00,44.1,28.9,27.74,SW,225,2.3,2.3,55,0.01,RA,SKC,0.07,WeatherDisplay:10.37,2013-02-13 20:40:00,
2013-02-13 15:43:00,44.1,28.9,27.75,NE,45,2.3,0.0,55,0.01,,SKC,0.07,WeatherDisplay:10.37,2013-02-13 20:43:00,
2013-02-13 15:44:00,44.1,28.9,27.75,NE,45,0.0,0.0,55,0.01,,SKC,0.07,WeatherDisplay:10.37,2013-02-13 20:44:00,
2013-02-13 15:45:00,33.6,22.7,27.94,South,180,0.0,0.0,64,0.00,CLR,SKC,0.00,WeatherDisplay:10.37,2013-02-13 20:45:00,
2013-02-13 15:46:00,44.1,28.9,27.75,NE,45,1.6,0.0,55,0.01,CLR,SKC,0.07,WeatherDisplay:10.37,2013-02-13 20:46:00,
2013-02-13 15:49:00,44.1,28.9,27.74,NE,45,0.0,0.0,55,0.01,CLR,SKC,0.07,WeatherDisplay:10.37,2013-02-13 20:49:00,
2013-02-13 15:50:00,44.1,28.9,27.74,South,180,0.0,1.6,55,0.01,CLR,SKC,0.07,WeatherDisplay:10.37,2013-02-13 20:50:00,
2013-02-13 15:51:00,44.1,28.9,27.74,NE,45,4.6,4.6,55,0.01,CLR,SKC,0.07,WeatherDisplay:10.37,2013-02-13 20:51:00,
2013-02-13 15:54:00,43.9,28.7,27.75,SW,225,3.5,0.0,55,0.01,CLR,SKC,0.07,WeatherDisplay:10.37,2013-02-13 20:54:00,
2013-02-13 15:55:00,43.9,28.7,27.75,SW,225,3.5,0.0,55,0.01,CLR,SKC,0.07,WeatherDisplay:10.37,2013-02-13 20:55:00,
2013-02-13 15:56:00,43.9,29.2,27.75,WNW,292,1.1,0.0,56,0.01,CLR,SKC,0.07,WeatherDisplay:10.37,2013-02-13 20:56:00,
2013-02-13 15:59:00,43.7,29.0,27.75,NW,315,3.5,0.0,56,0.01,CLR,SKC,0.07,WeatherDisplay:10.37,2013-02-13 20:59:00,
2013-02-13 16:00:00,43.9,29.2,27.75,SW,225,5.8,5.8,56,0.01,CLR,SKC,0.07,WeatherDisplay:10.37,2013-02-13 21:00:00,
2013-02-13 16:01:00,43.7,29.0,27.75,NW,315,8.1,8.1,56,0.01,CLR,SKC,0.07,WeatherDisplay:10.37,2013-02-13 21:01:00,
2013-02-13 16:04:00,43.7,29.0,27.75,NW,315,8.1,8.1,56,0.01,CLR,SKC,0.07,WeatherDisplay:10.37,2013-02-13 21:04:00,
2013-02-13 16:05:00,43.7,29.0,27.75,NW,315,8.1,8.1,56,0.01,CLR,SKC,0.07,WeatherDisplay:10.37,2013-02-13 21:05:00,
2013-02-13 16:06:00,43.7,29.0,27.75,NW,315,8.1,8.1,56,0.01,CLR,SKC,0.07,WeatherDisplay:10.37,2013-02-13 21:06:00,
2013-02-13 16:09:00,43.5,28.8,27.75,West,270,0.0,0.0,56,0.01,CLR,SKC,0.07,WeatherDisplay:10.37,2013-02-13 21:09:00,
2013-02-13 16:10:00,43.2,28.5,27.75,East,90,0.0,0.0,56,0.01,CLR,SKC,0.07,WeatherDisplay:10.37,2013-02-13 21:10:00,
2013-02-13 16:11:00,43.3,29.1,27.76,West,270,0.0,0.7,57,0.01,CLR,SKC,0.07,WeatherDisplay:10.37,2013-02-13 21:11:00,
2013-02-13 16:14:00,43.5,29.3,27.76,SW,225,2.3,0.0,57,0.01,CLR,SKC,0.07,WeatherDisplay:10.37,2013-02-13 21:14:00,
2013-02-13 16:15:00,43.3,29.1,27.75,SW,225,3.5,0.0,57,0.01,CLR,SKC,0.07,WeatherDisplay:10.37,2013-02-13 21:15:00,
2013-02-13 16:16:00,43.3,29.1,27.76,NNW,338,3.5,0.0,57,0.01,CLR,SKC,0.07,WeatherDisplay:10.37,2013-02-13 21:16:00,
2013-02-13 16:20:00,43.3,29.1,27.76,WSW,248,8.1,8.1,57,0.01,CLR,SKC,0.07,WeatherDisplay:10.37,2013-02-13 21:20:00,
2013-02-13 16:21:00,43.3,29.1,27.76,West,270,6.9,6.9,57,0.01,CLR,SKC,0.07,WeatherDisplay:10.37,2013-02-13 21:21:00,
2013-02-13 16:22:00,43.2,28.5,27.75,NW,315,8.1,8.1,56,0.01,CLR,SKC,0.07,WeatherDisplay:10.37,2013-02-13 21:22:00,
2013-02-13 16:25:00,43.0,27.9,27.76,South,180,9.2,9.2,55,0.01,CLR,SKC,0.07,WeatherDisplay:10.37,2013-02-13 21:25:00,
2013-02-13 16:26:00,43.0,27.9,27.76,South,180,9.2,9.2,55,0.01,CLR,SKC,0.07,WeatherDisplay:10.37,2013-02-13 21:26:00,
2013-02-13 16:27:00,42.8,27.7,27.76,NW,315,6.9,6.9,55,0.01,CLR,SKC,0.07,WeatherDisplay:10.37,2013-02-13 21:27:00,
2013-02-13 16:30:00,42.8,28.2,27.75,West,270,4.6,0.0,56,0.01,CLR,SKC,0.07,WeatherDisplay:10.37,2013-02-13 21:30:00,
2013-02-13 16:31:00,42.8,28.2,27.75,South,180,1.1,0.0,56,0.01,CLR,SKC,0.07,WeatherDisplay:10.37,2013-02-13 21:31:00,
2013-02-13 16:32:00,42.6,28.0,27.76,South,180,0.0,0.0,56,0.01,CLR,SKC,0.07,WeatherDisplay:10.37,2013-02-13 21:32:00,
2013-02-13 16:35:00,42.6,28.0,27.76,North,0,0.0,0.0,56,0.00,CLR,SKC,0.07,WeatherDisplay:10.37,2013-02-13 21:35:00,
2013-02-13 16:36:00,42.8,28.2,27.76,NW,315,0.0,0.0,56,0.00,CLR,SKC,0.07,WeatherDisplay:10.37,2013-02-13 21:36:00,
2013-02-13 16:37:00,42.6,28.0,27.76,North,0,1.1,0.0,56,0.00,CLR,SKC,0.07,WeatherDisplay:10.37,2013-02-13 21:37:00,
2013-02-13 16:40:00,42.6,28.0,27.76,NE,45,3.5,0.0,56,0.00,CLR,SKC,0.07,WeatherDisplay:10.37,2013-02-13 21:40:00,
2013-02-13 16:41:00,42.6,28.0,27.76,NE,45,2.3,0.0,56,0.00,CLR,SKC,0.07,WeatherDisplay:10.37,2013-02-13 21:41:00,
2013-02-13 16:42:00,42.6,28.0,27.76,NE,45,4.6,4.6,56,0.00,CLR,SKC,0.07,WeatherDisplay:10.37,2013-02-13 21:42:00,
2013-02-13 16:43:00,42.8,28.6,27.76,North,0,4.6,0.0,57,0.00,CLR,SKC,0.07,WeatherDisplay:10.37,2013-02-13 21:43:00,
2013-02-13 16:45:00,42.8,28.6,27.76,NW,315,3.5,0.0,57,0.00,CLR,SKC,0.07,WeatherDisplay:10.37,2013-02-13 21:45:00,
2013-02-13 16:46:00,42.8,28.6,27.76,NW,315,1.1,0.0,57,0.00,CLR,SKC,0.07,WeatherDisplay:10.37,2013-02-13 21:46:00,
2013-02-13 16:47:00,42.8,28.6,27.76,SE,135,1.1,0.0,57,0.00,CLR,SKC,0.07,WeatherDisplay:10.37,2013-02-13 21:47:00,
2013-02-13 16:48:00,42.8,28.6,27.76,SE,135,0.0,0.0,57,0.00,CLR,SKC,0.07,WeatherDisplay:10.37,2013-02-13 21:48:00,
2013-02-13 16:51:00,42.8,28.6,27.75,West,270,2.3,2.3,57,0.00,CLR,SKC,0.07,WeatherDisplay:10.37,2013-02-13 21:51:00,
2013-02-13 16:52:00,42.8,28.6,27.76,NW,315,2.3,2.3,57,0.00,CLR,SKC,0.07,WeatherDisplay:10.37,2013-02-13 21:52:00,
2013-02-13 16:53:00,43.0,28.8,27.76,NW,315,2.3,0.0,57,0.00,CLR,SKC,0.07,WeatherDisplay:10.37,2013-02-13 21:53:00,
2013-02-13 16:56:00,42.8,28.6,27.76,North,0,3.5,0.0,57,0.00,CLR,SKC,0.07,WeatherDisplay:10.37,2013-02-13 21:56:00,
2013-02-13 16:57:00,42.8,28.6,27.76,North,0,3.5,3.5,57,0.00,CLR,SKC,0.07,WeatherDisplay:10.37,2013-02-13 21:57:00,
2013-02-13 16:58:00,42.8,28.6,27.77,NW,315,3.5,3.5,57,0.00,CLR,SKC,0.07,WeatherDisplay:10.37,2013-02-13 21:58:00,
2013-02-13 17:00:00,33.4,22.6,27.94,South,180,0.0,0.0,64,0.00,CLR,SKC,0.00,WeatherDisplay:10.37,2013-02-13 22:00:00,
2013-02-13 17:01:00,43.0,28.3,27.78,North,0,1.1,0.0,56,0.00,CLR,SKC,0.07,WeatherDisplay:10.37,2013-02-13 22:01:00,
2013-02-13 17:02:00,43.0,28.3,27.78,North,0,1.1,0.0,56,0.00,CLR,SKC,0.07,WeatherDisplay:10.37,2013-02-13 22:02:00,
2013-02-13 17:03:00,43.0,28.3,27.78,North,0,1.1,0.0,56,0.00,CLR,SKC,0.07,WeatherDisplay:10.37,2013-02-13 22:03:00,
2013-02-13 17:06:00,43.0,28.3,27.77,North,0,1.1,0.0,56,0.00,CLR,SKC,0.07,WeatherDisplay:10.37,2013-02-13 22:06:00,
2013-02-13 17:07:00,43.0,26.1,27.78,West,270,1.1,6.9,51,0.00,CLR,SKC,0.07,WeatherDisplay:10.37,2013-02-13 22:07:00,
2013-02-13 17:08:00,42.8,25.4,27.78,NW,315,10.4,10.4,50,0.00,CLR,SKC,0.07,WeatherDisplay:10.37,2013-02-13 22:08:00,
2013-02-13 17:11:00,42.8,24.4,27.78,NE,45,11.5,11.5,48,0.00,CLR,SKC,0.07,WeatherDisplay:10.37,2013-02-13 22:11:00,
2013-02-13 17:12:00,42.8,24.4,27.78,NE,45,11.5,11.5,48,0.00,CLR,SKC,0.07,WeatherDisplay:10.37,2013-02-13 22:12:00,
2013-02-13 17:13:00,42.8,23.9,27.78,NE,45,6.9,6.9,47,0.00,CLR,SKC,0.07,WeatherDisplay:10.37,2013-02-13 22:13:00,
2013-02-13 17:15:00,33.4,22.6,27.94,South,180,0.0,0.0,64,0.00,CLR,SKC,0.00,WeatherDisplay:10.37,2013-02-13 22:15:00,
2013-02-13 17:16:00,42.8,23.9,27.78,NE,45,5.8,5.8,47,0.00,CLR,SKC,0.07,WeatherDisplay:10.37,2013-02-13 22:16:00,
2013-02-13 17:17:00,42.8,24.4,27.78,West,270,5.8,0.0,48,0.00,CLR,SKC,0.07,WeatherDisplay:10.37,2013-02-13 22:17:00,
2013-02-13 17:18:00,42.8,23.4,27.78,NE,45,4.6,5.4,46,0.00,CLR,SKC,0.07,WeatherDisplay:10.37,2013-02-13 22:18:00,
2013-02-13 17:21:00,42.6,25.3,27.78,SE,135,4.6,0.0,50,0.00,CLR,SKC,0.07,WeatherDisplay:10.37,2013-02-13 22:21:00,
2013-02-13 17:22:00,42.4,24.6,27.79,NW,315,3.5,3.5,49,0.00,CLR,SKC,0.07,WeatherDisplay:10.37,2013-02-13 22:22:00,
2013-02-13 17:23:00,42.4,25.1,27.79,SW,225,3.5,3.5,50,0.00,CLR,SKC,0.07,WeatherDisplay:10.37,2013-02-13 22:23:00,
2013-02-13 17:26:00,42.3,23.9,27.78,South,180,8.1,8.1,48,0.00,CLR,SKC,0.07,WeatherDisplay:10.37,2013-02-13 22:26:00,
2013-02-13 17:27:00,42.3,23.9,27.78,South,180,8.1,8.1,48,0.00,CLR,SKC,0.07,WeatherDisplay:10.37,2013-02-13 22:27:00,
2013-02-13 17:28:00,42.4,24.1,27.79,North,0,5.8,5.8,48,0.00,CLR,SKC,0.07,WeatherDisplay:10.37,2013-02-13 22:28:00,
2013-02-13 17:29:00,42.4,24.1,27.79,North,0,5.8,5.8,48,0.00,CLR,SKC,0.07,WeatherDisplay:10.37,2013-02-13 22:29:00,
2013-02-13 17:30:00,33.4,22.6,27.94,South,180,0.0,0.0,64,0.00,CLR,SKC,0.00,WeatherDisplay:10.37,2013-02-13 22:30:00,
2013-02-13 17:32:00,42.1,23.3,27.79,NW,315,2.3,0.0,47,0.00,CLR,SKC,0.07,WeatherDisplay:10.37,2013-02-13 22:32:00,
2013-02-13 17:33:00,42.3,23.9,27.80,West,270,3.5,3.5,48,0.00,CLR,SKC,0.07,WeatherDisplay:10.37,2013-02-13 22:33:00,
2013-02-13 17:34:00,42.3,23.9,27.80,West,270,4.6,4.6,48,0.00,CLR,SKC,0.07,WeatherDisplay:10.37,2013-02-13 22:34:00,
2013-02-13 17:37:00,42.1,23.3,27.80,West,270,3.5,0.0,47,0.00,CLR,SKC,0.07,WeatherDisplay:10.37,2013-02-13 22:37:00,
2013-02-13 17:38:00,42.1,23.3,27.80,SE,135,3.5,0.0,47,0.00,CLR,SKC,0.07,WeatherDisplay:10.37,2013-02-13 22:38:00,
2013-02-13 17:39:00,42.1,23.8,27.80,West,270,0.0,0.0,48,0.00,CLR,SKC,0.07,WeatherDisplay:10.37,2013-02-13 22:39:00,
2013-02-13 17:42:00,41.7,22.9,27.80,NE,45,5.8,5.8,47,0.00,CLR,SKC,0.07,WeatherDisplay:10.37,2013-02-13 22:42:00,
2013-02-13 17:43:00,41.9,23.1,27.80,North,0,9.2,9.2,47,0.00,CLR,SKC,0.07,WeatherDisplay:10.37,2013-02-13 22:43:00,
2013-02-13 17:44:00,41.9,22.1,27.80,NW,315,10.4,10.4,45,0.00,CLR,SKC,0.07,WeatherDisplay:10.37,2013-02-13 22:44:00,
2013-02-13 17:45:00,33.4,22.6,27.94,South,180,0.0,0.0,64,0.00,CLR,SKC,0.00,WeatherDisplay:10.37,2013-02-13 22:45:00,
2013-02-13 17:47:00,41.7,21.9,27.81,North,0,12.7,12.7,45,0.00,CLR,SKC,0.07,WeatherDisplay:10.37,2013-02-13 22:47:00,
2013-02-13 17:48:00,41.7,21.9,27.81,NE,45,12.7,12.7,45,0.00,CLR,SKC,0.07,WeatherDisplay:10.37,2013-02-13 22:48:00,
2013-02-13 17:49:00,41.7,21.9,27.80,West,270,8.1,8.1,45,0.00,CLR,SKC,0.07,WeatherDisplay:10.37,2013-02-13 22:49:00,
2013-02-13 17:52:00,41.5,21.2,27.81,SW,225,4.6,4.6,44,0.00,CLR,SKC,0.07,WeatherDisplay:10.37,2013-02-13 22:52:00,
2013-02-13 17:53:00,41.5,21.2,27.81,SW,225,9.2,9.2,44,0.00,CLR,SKC,0.07,WeatherDisplay:10.37,2013-02-13 22:53:00,
2013-02-13 17:54:00,41.5,21.2,27.81,NW,315,9.2,9.2,44,0.00,CLR,SKC,0.07,WeatherDisplay:10.37,2013-02-13 22:54:00,
2013-02-13 17:58:00,41.2,20.9,27.81,NW,315,5.8,5.8,44,0.00,CLR,SKC,0.07,WeatherDisplay:10.37,2013-02-13 22:58:00,
2013-02-13 17:59:00,41.4,21.6,27.81,NW,315,9.2,9.2,45,0.00,CLR,SKC,0.07,WeatherDisplay:10.37,2013-02-13 22:59:00,
2013-02-13 18:00:00,33.4,22.6,27.94,South,180,0.0,0.0,64,0.00,CLR,SKC,0.00,WeatherDisplay:10.37,2013-02-13 23:00:00,
2013-02-13 18:03:00,41.4,21.6,27.82,NW,315,3.5,0.0,45,0.00,CLR,SKC,0.07,WeatherDisplay:10.37,2013-02-13 23:03:00,
2013-02-13 18:04:00,41.4,21.6,27.82,NW,315,3.5,0.0,45,0.00,CLR,SKC,0.07,WeatherDisplay:10.37,2013-02-13 23:04:00,
2013-02-13 18:08:00,41.2,21.4,27.82,North,0,3.5,3.5,45,0.00,CLR,SKC,0.07,WeatherDisplay:10.37,2013-02-13 23:08:00,
2013-02-13 18:09:00,41.2,20.9,27.82,NW,315,5.8,5.8,44,0.00,CLR,SKC,0.07,WeatherDisplay:10.37,2013-02-13 23:09:00,
2013-02-13 18:13:00,41.2,20.9,27.82,West,270,3.5,3.5,44,0.00,CLR,SKC,0.07,WeatherDisplay:10.37,2013-02-13 23:13:00,
2013-02-13 18:14:00,41.2,21.4,27.82,West,270,3.5,3.5,45,0.00,CLR,SKC,0.07,WeatherDisplay:10.37,2013-02-13 23:14:00,
2013-02-13 18:15:00,41.2,21.4,27.82,SW,225,6.9,6.9,45,0.00,CLR,SKC,0.07,WeatherDisplay:10.37,2013-02-13 23:15:00,
2013-02-13 18:18:00,41.0,22.3,27.82,North,0,3.5,3.5,47,0.00,CLR,SKC,0.07,WeatherDisplay:10.37,2013-02-13 23:18:00,
2013-02-13 18:20:00,41.0,22.3,27.82,NW,315,3.5,3.5,47,0.00,CLR,SKC,0.07,WeatherDisplay:10.37,2013-02-13 23:20:00,
2013-02-13 18:23:00,41.0,21.8,27.82,NW,315,4.6,4.6,46,0.00,CLR,SKC,0.07,WeatherDisplay:10.37,2013-02-13 23:23:00,
2013-02-13 18:24:00,41.0,22.3,27.82,North,0,5.8,5.8,47,0.00,CLR,SKC,0.07,WeatherDisplay:10.37,2013-02-13 23:24:00,
2013-02-13 18:25:00,40.8,22.1,27.82,NW,315,5.8,5.8,47,0.00,CLR,SKC,0.07,WeatherDisplay:10.37,2013-02-13 23:25:00,
2013-02-13 18:28:00,40.8,21.1,27.82,North,0,8.1,8.1,45,0.00,CLR,SKC,0.07,WeatherDisplay:10.37,2013-02-13 23:28:00,
2013-02-13 18:29:00,40.8,21.1,27.83,NW,315,5.8,5.8,45,0.00,CLR,SKC,0.07,WeatherDisplay:10.37,2013-02-13 23:29:00,
2013-02-13 18:30:00,40.8,21.1,27.83,NW,315,6.9,6.9,45,0.00,CLR,SKC,0.07,WeatherDisplay:10.37,2013-02-13 23:30:00,
2013-02-13 18:34:00,40.8,20.6,27.82,NW,315,10.4,10.4,44,0.00,CLR,SKC,0.07,WeatherDisplay:10.37,2013-02-13 23:34:00,
2013-02-13 18:35:00,40.8,19.5,27.82,NW,315,10.7,10.7,42,0.00,CLR,SKC,0.07,WeatherDisplay:10.37,2013-02-13 23:35:00,
2013-02-13 18:39:00,40.8,19.5,27.82,NW,315,5.8,5.8,42,0.00,CLR,SKC,0.07,WeatherDisplay:10.37,2013-02-13 23:39:00,
2013-02-13 18:40:00,40.8,19.5,27.82,NW,315,5.8,5.8,42,0.00,CLR,SKC,0.07,WeatherDisplay:10.37,2013-02-13 23:40:00,
2013-02-13 18:44:00,40.6,19.3,27.81,NW,315,5.8,0.0,42,0.00,CLR,SKC,0.07,WeatherDisplay:10.37,2013-02-13 23:44:00,
2013-02-13 18:45:00,40.5,19.7,27.82,SW,225,2.3,2.3,43,0.00,CLR,SKC,0.07,WeatherDisplay:10.37,2013-02-13 23:45:00,
2013-02-13 18:49:00,40.3,20.1,27.82,SW,225,2.3,0.0,44,0.00,CLR,SKC,0.07,WeatherDisplay:10.37,2013-02-13 23:49:00,
2013-02-13 18:50:00,40.1,19.9,27.83,NW,315,2.3,0.0,44,0.00,CLR,SKC,0.07,WeatherDisplay:10.37,2013-02-13 23:50:00,
2013-02-13 18:54:00,39.7,20.1,27.83,SW,225,3.5,3.5,45,0.00,CLR,SKC,0.07,WeatherDisplay:10.37,2013-02-13 23:54:00,
2013-02-13 18:55:00,39.7,20.1,27.82,WNW,292,3.5,3.5,45,0.00,CLR,SKC,0.07,WeatherDisplay:10.37,2013-02-13 23:55:00,
2013-02-13 18:56:00,39.7,20.6,27.83,NW,315,3.5,3.5,46,0.00,CLR,SKC,0.07,WeatherDisplay:10.37,2013-02-13 23:56:00,
2013-02-13 18:59:00,39.6,20.5,27.83,NW,315,3.5,0.0,46,0.00,CLR,SKC,0.07,WeatherDisplay:10.37,2013-02-13 23:59:00,
2013-02-13 19:01:00,39.6,20.5,27.83,SW,225,3.5,3.5,46,0.00,CLR,SKC,0.07,WeatherDisplay:10.37,2013-02-14 00:01:00,
2013-02-13 19:04:00,39.6,20.5,27.83,SW,225,3.5,3.5,46,0.00,CLR,SKC,0.07,WeatherDisplay:10.37,2013-02-14 00:04:00,
2013-02-13 19:06:00,39.6,20.5,27.83,SW,225,3.5,3.5,46,0.00,CLR,SKC,0.07,WeatherDisplay:10.37,2013-02-14 00:06:00,
2013-02-13 19:09:00,39.4,21.3,27.83,South,180,4.6,0.0,48,0.00,CLR,SKC,0.07,WeatherDisplay:10.37,2013-02-14 00:09:00,
2013-02-13 19:10:00,39.4,21.3,27.83,South,180,4.6,0.0,48,0.00,CLR,SKC,0.07,WeatherDisplay:10.37,2013-02-14 00:10:00,
2013-02-13 19:11:00,39.4,21.3,27.84,South,180,1.1,0.0,48,0.00,CLR,SKC,0.07,WeatherDisplay:10.37,2013-02-14 00:11:00,
2013-02-13 19:14:00,39.2,21.1,27.83,South,180,3.5,0.0,48,0.00,CLR,SKC,0.07,WeatherDisplay:10.37,2013-02-14 00:14:00,
2013-02-13 19:15:00,39.2,21.1,27.83,South,180,3.5,0.0,48,0.00,CLR,SKC,0.07,WeatherDisplay:10.37,2013-02-14 00:15:00,
2013-02-13 19:16:00,39.2,21.1,27.83,South,180,0.0,0.0,48,0.00,CLR,SKC,0.07,WeatherDisplay:10.37,2013-02-14 00:16:00,
2013-02-13 19:19:00,39.0,21.0,27.83,South,180,0.0,0.0,48,0.00,CLR,SKC,0.07,WeatherDisplay:10.37,2013-02-14 00:19:00,
2013-02-13 19:21:00,39.0,21.0,27.83,SE,135,0.0,0.7,48,0.00,CLR,SKC,0.07,WeatherDisplay:10.37,2013-02-14 00:21:00,
2013-02-13 19:25:00,38.7,20.6,27.84,SE,135,0.0,0.0,48,0.00,CLR,SKC,0.07,WeatherDisplay:10.37,2013-02-14 00:25:00,
2013-02-13 19:26:00,38.7,20.6,27.84,SE,135,0.0,0.0,48,0.00,CLR,SKC,0.07,WeatherDisplay:10.37,2013-02-14 00:26:00,
2013-02-13 19:27:00,38.7,21.1,27.84,SE,135,0.0,0.0,49,0.00,CLR,SKC,0.07,WeatherDisplay:10.37,2013-02-14 00:27:00,
2013-02-13 19:30:00,38.7,21.1,27.84,SE,135,0.0,1.6,49,0.00,CLR,SKC,0.07,WeatherDisplay:10.37,2013-02-14 00:30:00,
2013-02-13 19:31:00,38.7,21.1,27.84,SE,135,3.5,3.5,49,0.00,CLR,SKC,0.07,WeatherDisplay:10.37,2013-02-14 00:31:00,
2013-02-13 19:32:00,38.7,21.6,27.84,SE,135,3.5,3.5,50,0.00,CLR,SKC,0.07,WeatherDisplay:10.37,2013-02-14 00:32:00,
2013-02-13 19:35:00,38.5,21.9,27.85,SE,135,3.5,3.5,51,0.00,CLR,SKC,0.07,WeatherDisplay:10.37,2013-02-14 00:35:00,
2013-02-13 19:36:00,38.5,21.9,27.85,SE,135,2.3,0.0,51,0.00,CLR,SKC,0.07,WeatherDisplay:10.37,2013-02-14 00:36:00,
2013-02-13 19:38:00,38.5,22.4,27.85,SE,135,1.1,0.0,52,0.00,CLR,SKC,0.07,WeatherDisplay:10.37,2013-02-14 00:38:00,
2013-02-13 19:41:00,38.5,22.4,27.86,SE,135,3.5,3.5,52,0.00,CLR,SKC,0.07,WeatherDisplay:10.37,2013-02-14 00:41:00,
2013-02-13 19:43:00,38.5,22.4,27.85,SE,135,3.5,0.0,52,0.00,CLR,SKC,0.07,WeatherDisplay:10.37,2013-02-14 00:43:00,
2013-02-13 19:46:00,38.5,21.9,27.85,SE,135,2.2,2.2,51,0.00,CLR,SKC,0.07,WeatherDisplay:10.37,2013-02-14 00:46:00,
2013-02-13 19:48:00,38.7,21.6,27.85,South,180,4.6,4.6,50,0.00,CLR,SKC,0.07,WeatherDisplay:10.37,2013-02-14 00:48:00,
2013-02-13 19:51:00,38.7,20.1,27.85,South,180,5.8,5.8,47,0.00,CLR,SKC,0.07,WeatherDisplay:10.37,2013-02-14 00:51:00,
2013-02-13 19:52:00,38.8,20.3,27.85,South,180,3.5,3.5,47,0.00,CLR,SKC,0.07,WeatherDisplay:10.37,2013-02-14 00:52:00,
2013-02-13 19:53:00,39.0,20.5,27.85,South,180,3.5,3.5,47,0.00,CLR,SKC,0.07,WeatherDisplay:10.37,2013-02-14 00:53:00,
2013-02-13 19:56:00,39.0,19.4,27.85,South,180,3.5,0.0,45,0.00,CLR,SKC,0.07,WeatherDisplay:10.37,2013-02-14 00:56:00,
2013-02-13 19:57:00,39.2,19.6,27.85,South,180,2.3,0.0,45,0.00,CLR,SKC,0.07,WeatherDisplay:10.37,2013-02-14 00:57:00,
2013-02-13 19:58:00,39.0,19.4,27.85,South,180,1.1,0.0,45,0.00,CLR,SKC,0.07,WeatherDisplay:10.37,2013-02-14 00:58:00,
2013-02-13 20:01:00,39.0,19.4,27.85,South,180,0.0,0.0,45,0.00,CLR,SKC,0.07,WeatherDisplay:10.37,2013-02-14 01:01:00,
2013-02-13 20:02:00,39.0,19.4,27.85,South,180,0.0,0.0,45,0.00,CLR,SKC,0.07,WeatherDisplay:10.37,2013-02-14 01:02:00,
2013-02-13 20:04:00,39.0,19.4,27.85,South,180,0.0,0.0,45,0.00,CLR,SKC,0.07,WeatherDisplay:10.37,2013-02-14 01:04:00,
2013-02-13 20:06:00,39.0,19.4,27.86,South,180,0.0,0.0,45,0.00,CLR,SKC,0.07,WeatherDisplay:10.37,2013-02-14 01:06:00,
2013-02-13 20:07:00,39.0,20.5,27.86,South,180,0.0,0.0,47,0.00,CLR,SKC,0.07,WeatherDisplay:10.37,2013-02-14 01:07:00,
2013-02-13 20:09:00,38.8,20.8,27.86,South,180,0.0,0.0,48,0.00,CLR,SKC,0.07,WeatherDisplay:10.37,2013-02-14 01:09:00,
2013-02-13 20:11:00,38.8,20.8,27.86,West,270,0.0,0.0,48,0.00,CLR,SKC,0.07,WeatherDisplay:10.37,2013-02-14 01:11:00,
2013-02-13 20:12:00,38.7,20.6,27.86,West,270,2.3,0.0,48,0.00,CLR,SKC,0.07,WeatherDisplay:10.37,2013-02-14 01:12:00,
2013-02-13 20:14:00,38.7,21.6,27.86,NW,315,3.5,3.5,50,0.00,CLR,SKC,0.07,WeatherDisplay:10.37,2013-02-14 01:14:00,
2013-02-13 20:16:00,38.7,19.6,27.86,NW,315,3.5,0.0,46,0.00,CLR,SKC,0.07,WeatherDisplay:10.37,2013-02-14 01:16:00,
2013-02-13 20:17:00,38.7,19.6,27.86,NW,315,3.5,0.0,46,0.00,CLR,SKC,0.07,WeatherDisplay:10.37,2013-02-14 01:17:00,
2013-02-13 20:19:00,38.5,19.5,27.86,West,270,1.1,0.0,46,0.00,CLR,SKC,0.07,WeatherDisplay:10.37,2013-02-14 01:19:00,
2013-02-13 20:22:00,38.5,18.4,27.87,West,270,2.3,0.0,44,0.00,CLR,SKC,0.07,WeatherDisplay:10.37,2013-02-14 01:22:00,
2013-02-13 20:24:00,38.5,18.4,27.86,West,270,1.1,0.0,44,0.00,CLR,SKC,0.07,WeatherDisplay:10.37,2013-02-14 01:24:00,
2013-02-13 20:27:00,38.5,17.9,27.87,West,270,1.1,0.0,43,0.00,CLR,SKC,0.07,WeatherDisplay:10.37,2013-02-14 01:27:00,
2013-02-13 20:28:00,38.5,17.9,27.87,West,270,0.0,0.0,43,0.00,CLR,SKC,0.07,WeatherDisplay:10.37,2013-02-14 01:28:00,
2013-02-13 20:29:00,38.5,18.4,27.87,West,270,1.1,0.0,44,0.00,CLR,SKC,0.07,WeatherDisplay:10.37,2013-02-14 01:29:00,
2013-02-13 20:32:00,38.3,18.3,27.87,West,270,0.0,0.0,44,0.00,CLR,SKC,0.07,WeatherDisplay:10.37,2013-02-14 01:32:00,
2013-02-13 20:33:00,38.3,18.3,27.87,West,270,0.0,0.0,44,0.00,CLR,SKC,0.07,WeatherDisplay:10.37,2013-02-14 01:33:00,
2013-02-13 20:34:00,38.3,19.3,27.87,West,270,0.0,0.0,46,0.00,CLR,SKC,0.07,WeatherDisplay:10.37,2013-02-14 01:34:00,
2013-02-13 20:38:00,38.1,20.6,27.87,West,270,0.0,0.0,49,0.00,CLR,SKC,0.07,WeatherDisplay:10.37,2013-02-14 01:38:00,
2013-02-13 20:40:00,37.9,20.0,27.87,West,270,0.0,0.0,48,0.00,CLR,SKC,0.07,WeatherDisplay:10.37,2013-02-14 01:40:00,
2013-02-13 20:43:00,37.8,18.8,27.88,West,270,2.3,0.0,46,0.00,CLR,SKC,0.07,WeatherDisplay:10.37,2013-02-14 01:43:00,
2013-02-13 20:45:00,37.6,18.6,27.87,West,270,0.0,0.0,46,0.00,CLR,SKC,0.07,WeatherDisplay:10.37,2013-02-14 01:45:00,
2013-02-13 20:48:00,37.4,19.0,27.87,SW,225,3.5,3.5,47,0.00,CLR,SKC,0.07,WeatherDisplay:10.37,2013-02-14 01:48:00,
2013-02-13 20:49:00,37.4,19.0,27.87,SW,225,3.5,3.5,47,0.00,CLR,SKC,0.07,WeatherDisplay:10.37,2013-02-14 01:49:00,
2013-02-13 20:50:00,37.4,19.0,27.87,SW,225,2.3,0.0,47,0.00,CLR,SKC,0.07,WeatherDisplay:10.37,2013-02-14 01:50:00,
2013-02-13 20:53:00,37.2,18.8,27.87,SW,225,3.5,0.0,47,0.00,CLR,SKC,0.07,WeatherDisplay:10.37,2013-02-14 01:53:00,
2013-02-13 20:54:00,37.2,18.8,27.87,SW,225,1.1,0.0,47,0.00,CLR,SKC,0.07,WeatherDisplay:10.37,2013-02-14 01:54:00,
2013-02-13 20:56:00,37.2,19.3,27.87,SW,225,1.1,0.0,48,0.00,CLR,SKC,0.07,WeatherDisplay:10.37,2013-02-14 01:56:00,
2013-02-13 20:58:00,37.0,19.1,27.87,SW,225,1.1,0.0,48,0.00,CLR,SKC,0.07,WeatherDisplay:10.37,2013-02-14 01:58:00,
2013-02-13 20:59:00,37.0,19.1,27.87,SW,225,1.1,0.0,48,0.00,CLR,SKC,0.07,WeatherDisplay:10.37,2013-02-14 01:59:00,
2013-02-13 21:01:00,36.9,19.0,27.87,SW,225,2.3,2.3,48,0.00,CLR,SKC,0.07,WeatherDisplay:10.37,2013-02-14 02:01:00,
2013-02-13 21:03:00,36.9,19.0,27.87,SW,225,2.3,2.3,48,0.00,CLR,SKC,0.07,WeatherDisplay:10.37,2013-02-14 02:03:00,
2013-02-13 21:04:00,36.9,19.0,27.88,SW,225,2.3,2.3,48,0.00,CLR,SKC,0.07,WeatherDisplay:10.37,2013-02-14 02:04:00,
2013-02-13 21:08:00,36.9,19.0,27.87,SW,225,2.3,0.0,48,0.00,CLR,SKC,0.07,WeatherDisplay:10.37,2013-02-14 02:08:00,
2013-02-13 21:09:00,36.7,18.8,27.87,SW,225,0.0,0.0,48,0.00,CLR,SKC,0.07,WeatherDisplay:10.37,2013-02-14 02:09:00,
2013-02-13 21:13:00,36.7,19.3,27.87,SW,225,0.0,0.0,49,0.00,CLR,SKC,0.07,WeatherDisplay:10.37,2013-02-14 02:13:00,
2013-02-13 21:15:00,36.5,19.1,27.88,SW,225,0.0,0.0,49,0.00,CLR,SKC,0.07,WeatherDisplay:10.37,2013-02-14 02:15:00,
2013-02-13 21:18:00,36.3,19.4,27.88,South,180,0.0,0.0,50,0.00,CLR,SKC,0.07,WeatherDisplay:10.37,2013-02-14 02:18:00,
2013-02-13 21:20:00,36.3,19.4,27.88,South,180,0.0,0.0,50,0.00,CLR,SKC,0.07,WeatherDisplay:10.37,2013-02-14 02:20:00,
2013-02-13 21:23:00,36.1,19.7,27.88,South,180,0.0,0.0,51,0.00,CLR,SKC,0.07,WeatherDisplay:10.37,2013-02-14 02:23:00,
2013-02-13 21:25:00,36.0,19.6,27.88,South,180,0.0,0.0,51,0.00,CLR,SKC,0.07,WeatherDisplay:10.37,2013-02-14 02:25:00,
2013-02-13 21:28:00,36.0,19.6,27.87,South,180,0.0,0.0,51,0.00,CLR,SKC,0.07,WeatherDisplay:10.37,2013-02-14 02:28:00,
2013-02-13 21:29:00,35.8,19.4,27.88,South,180,0.0,0.0,51,0.00,CLR,SKC,0.07,WeatherDisplay:10.37,2013-02-14 02:29:00,
2013-02-13 21:30:00,35.8,19.9,27.88,South,180,0.0,0.0,52,0.00,CLR,SKC,0.07,WeatherDisplay:10.37,2013-02-14 02:30:00,
2013-02-13 21:33:00,35.6,20.1,27.88,South,180,0.0,0.0,53,0.00,CLR,SKC,0.07,WeatherDisplay:10.37,2013-02-14 02:33:00,
2013-02-13 21:34:00,35.6,20.1,27.88,South,180,0.0,0.0,53,0.00,CLR,SKC,0.07,WeatherDisplay:10.37,2013-02-14 02:34:00,
2013-02-13 21:35:00,35.4,20.0,27.88,South,180,0.0,0.0,53,0.00,CLR,SKC,0.07,WeatherDisplay:10.37,2013-02-14 02:35:00,
2013-02-13 21:38:00,35.1,20.1,27.88,South,180,0.0,0.0,54,0.00,CLR,SKC,0.07,WeatherDisplay:10.37,2013-02-14 02:38:00,
2013-02-13 21:39:00,35.1,20.5,27.88,South,180,0.0,0.0,55,0.00,CLR,SKC,0.07,WeatherDisplay:10.37,2013-02-14 02:39:00,
2013-02-13 21:41:00,34.9,20.3,27.88,South,180,0.0,0.0,55,0.00,CLR,SKC,0.07,WeatherDisplay:10.37,2013-02-14 02:41:00,
2013-02-13 21:43:00,34.5,20.0,27.88,South,180,0.0,0.0,55,0.00,CLR,SKC,0.07,WeatherDisplay:10.37,2013-02-14 02:43:00,
2013-02-13 21:44:00,34.5,20.0,27.88,South,180,0.0,0.0,55,0.00,CLR,SKC,0.07,WeatherDisplay:10.37,2013-02-14 02:44:00,
2013-02-13 21:46:00,34.5,20.0,27.89,South,180,0.0,0.0,55,0.00,CLR,SKC,0.07,WeatherDisplay:10.37,2013-02-14 02:46:00,
2013-02-13 21:48:00,34.5,20.4,27.89,South,180,0.0,0.0,56,0.00,CLR,SKC,0.07,WeatherDisplay:10.37,2013-02-14 02:48:00,
2013-02-13 21:49:00,34.5,20.4,27.89,South,180,0.0,0.0,56,0.00,CLR,SKC,0.07,WeatherDisplay:10.37,2013-02-14 02:49:00,
2013-02-13 21:51:00,34.5,20.4,27.89,South,180,0.0,0.0,56,0.00,CLR,SKC,0.07,WeatherDisplay:10.37,2013-02-14 02:51:00,
2013-02-13 21:53:00,34.3,20.7,27.89,South,180,0.0,0.0,57,0.00,CLR,SKC,0.07,WeatherDisplay:10.37,2013-02-14 02:53:00,
2013-02-13 21:54:00,34.3,20.7,27.89,South,180,0.0,0.0,57,0.00,CLR,SKC,0.07,WeatherDisplay:10.37,2013-02-14 02:54:00,
2013-02-13 21:56:00,34.3,20.7,27.89,South,180,0.0,0.0,57,0.00,CLR,SKC,0.07,WeatherDisplay:10.37,2013-02-14 02:56:00,
2013-02-13 21:58:00,34.5,20.8,27.89,South,180,0.0,0.0,57,0.00,CLR,SKC,0.07,WeatherDisplay:10.37,2013-02-14 02:58:00,
2013-02-13 21:59:00,34.5,20.8,27.89,South,180,0.0,0.0,57,0.00,CLR,SKC,0.07,WeatherDisplay:10.37,2013-02-14 02:59:00,
2013-02-13 22:00:00,34.5,20.8,27.89,South,180,0.0,0.0,57,0.00,CLR,SKC,0.07,WeatherDisplay:10.37,2013-02-14 03:00:00,
2013-02-13 22:01:00,34.5,20.8,27.89,South,180,0.0,0.0,57,0.00,CLR,SKC,0.07,WeatherDisplay:10.37,2013-02-14 03:01:00,
2013-02-13 22:03:00,34.5,20.8,27.89,South,180,0.0,0.0,57,0.00,CLR,SKC,0.07,WeatherDisplay:10.37,2013-02-14 03:03:00,
2013-02-13 22:04:00,34.5,20.8,27.89,South,180,0.0,0.0,57,0.00,CLR,SKC,0.07,WeatherDisplay:10.37,2013-02-14 03:04:00,
2013-02-13 22:05:00,34.5,20.8,27.89,South,180,0.0,0.0,57,0.00,CLR,SKC,0.07,WeatherDisplay:10.37,2013-02-14 03:05:00,
2013-02-13 22:06:00,34.5,20.8,27.89,South,180,0.0,0.0,57,0.00,CLR,SKC,0.07,WeatherDisplay:10.37,2013-02-14 03:06:00,
2013-02-13 22:09:00,34.9,21.2,27.89,South,180,0.0,0.0,57,0.00,CLR,SKC,0.07,WeatherDisplay:10.37,2013-02-14 03:09:00,
2013-02-13 22:10:00,34.9,21.2,27.89,South,180,0.0,0.0,57,0.00,CLR,SKC,0.07,WeatherDisplay:10.37,2013-02-14 03:10:00,
2013-02-13 22:11:00,34.9,21.2,27.89,South,180,0.0,0.0,57,0.00,CLR,SKC,0.07,WeatherDisplay:10.37,2013-02-14 03:11:00,
2013-02-13 22:14:00,34.9,21.2,27.89,South,180,0.0,0.0,57,0.00,CLR,SKC,0.07,WeatherDisplay:10.37,2013-02-14 03:14:00,
2013-02-13 22:15:00,34.7,20.6,27.89,South,180,0.0,0.0,56,0.00,CLR,SKC,0.07,WeatherDisplay:10.37,2013-02-14 03:15:00,
2013-02-13 22:17:00,34.7,20.6,27.89,South,180,0.0,0.0,56,0.00,CLR,SKC,0.07,WeatherDisplay:10.37,2013-02-14 03:17:00,
2013-02-13 22:19:00,34.7,20.6,27.89,South,180,0.0,0.0,56,0.00,CLR,SKC,0.07,WeatherDisplay:10.37,2013-02-14 03:19:00,
2013-02-13 22:20:00,34.7,20.6,27.89,South,180,0.0,0.0,56,0.00,CLR,SKC,0.07,WeatherDisplay:10.37,2013-02-14 03:20:00,
2013-02-13 22:22:00,34.7,21.0,27.89,South,180,0.0,0.0,57,0.00,CLR,SKC,0.07,WeatherDisplay:10.37,2013-02-14 03:22:00,
2013-02-13 22:24:00,34.7,21.0,27.89,South,180,0.0,0.0,57,0.00,CLR,SKC,0.07,WeatherDisplay:10.37,2013-02-14 03:24:00,
2013-02-13 22:25:00,34.7,21.0,27.89,South,180,0.0,0.0,57,0.00,CLR,SKC,0.07,WeatherDisplay:10.37,2013-02-14 03:25:00,
2013-02-13 22:27:00,34.9,21.2,27.90,South,180,0.0,0.0,57,0.00,CLR,SKC,0.07,WeatherDisplay:10.37,2013-02-14 03:27:00,
2013-02-13 22:29:00,34.9,21.2,27.89,South,180,0.0,0.0,57,0.00,CLR,SKC,0.07,WeatherDisplay:10.37,2013-02-14 03:29:00,
2013-02-13 22:30:00,34.9,21.2,27.90,South,180,0.0,0.0,57,0.00,CLR,SKC,0.07,WeatherDisplay:10.37,2013-02-14 03:30:00,
2013-02-13 22:32:00,34.9,21.2,27.90,South,180,0.0,0.0,57,0.00,CLR,SKC,0.07,WeatherDisplay:10.37,2013-02-14 03:32:00,
2013-02-13 22:34:00,34.9,21.2,27.89,South,180,0.0,0.0,57,0.00,CLR,SKC,0.07,WeatherDisplay:10.37,2013-02-14 03:34:00,
2013-02-13 22:35:00,34.9,21.2,27.89,South,180,0.0,0.0,57,0.00,CLR,SKC,0.07,WeatherDisplay:10.37,2013-02-14 03:35:00,
2013-02-13 22:37:00,34.9,21.6,27.89,South,180,0.0,0.0,58,0.00,CLR,SKC,0.07,WeatherDisplay:10.37,2013-02-14 03:37:00,
2013-02-13 22:39:00,34.9,21.6,27.89,South,180,0.0,0.0,58,0.00,CLR,SKC,0.07,WeatherDisplay:10.37,2013-02-14 03:39:00,
2013-02-13 22:40:00,34.9,21.6,27.89,South,180,0.0,0.0,58,0.00,CLR,SKC,0.07,WeatherDisplay:10.37,2013-02-14 03:40:00,
2013-02-13 22:42:00,34.9,21.6,27.89,South,180,0.0,0.0,58,0.00,CLR,SKC,0.07,WeatherDisplay:10.37,2013-02-14 03:42:00,
2013-02-13 22:44:00,34.9,21.6,27.89,South,180,0.0,0.0,58,0.00,CLR,SKC,0.07,WeatherDisplay:10.37,2013-02-14 03:44:00,
2013-02-13 22:45:00,34.9,21.6,27.89,South,180,0.0,0.0,58,0.00,CLR,SKC,0.07,WeatherDisplay:10.37,2013-02-14 03:45:00,
2013-02-13 22:46:00,34.9,21.6,27.90,South,180,0.0,0.0,58,0.00,CLR,SKC,0.07,WeatherDisplay:10.37,2013-02-14 03:46:00,
2013-02-13 22:47:00,34.9,21.6,27.90,South,180,0.0,0.0,58,0.00,CLR,SKC,0.07,WeatherDisplay:10.37,2013-02-14 03:47:00,
2013-02-13 22:50:00,34.9,21.6,27.90,South,180,0.0,0.0,58,0.00,CLR,SKC,0.07,WeatherDisplay:10.37,2013-02-14 03:50:00,
2013-02-13 22:51:00,34.9,21.6,27.90,South,180,0.0,0.0,58,0.00,CLR,SKC,0.07,WeatherDisplay:10.37,2013-02-14 03:51:00,
2013-02-13 22:53:00,34.9,21.6,27.90,South,180,0.0,0.0,58,0.00,CLR,SKC,0.07,WeatherDisplay:10.37,2013-02-14 03:53:00,
2013-02-13 22:55:00,34.7,21.8,27.90,South,180,0.0,0.0,59,0.00,CLR,SKC,0.07,WeatherDisplay:10.37,2013-02-14 03:55:00,
2013-02-13 22:56:00,34.7,21.8,27.90,South,180,0.0,0.0,59,0.00,CLR,SKC,0.07,WeatherDisplay:10.37,2013-02-14 03:56:00,
2013-02-13 22:58:00,34.7,21.8,27.91,South,180,0.0,0.0,59,0.00,CLR,SKC,0.07,WeatherDisplay:10.37,2013-02-14 03:58:00,
2013-02-13 23:00:00,34.7,21.8,27.90,South,180,0.0,0.0,59,0.00,CLR,SKC,0.07,WeatherDisplay:10.37,2013-02-14 04:00:00,
2013-02-13 23:01:00,34.7,21.8,27.90,South,180,0.0,0.0,59,0.00,CLR,SKC,0.07,WeatherDisplay:10.37,2013-02-14 04:01:00,
2013-02-13 23:03:00,34.7,21.8,27.90,South,180,0.0,0.0,59,0.00,CLR,SKC,0.07,WeatherDisplay:10.37,2013-02-14 04:03:00,
2013-02-13 23:05:00,34.7,21.8,27.90,South,180,0.0,0.0,59,0.00,CLR,SKC,0.07,WeatherDisplay:10.37,2013-02-14 04:05:00,
2013-02-13 23:06:00,34.7,21.8,27.90,South,180,0.0,0.0,59,0.00,CLR,SKC,0.07,WeatherDisplay:10.37,2013-02-14 04:06:00,
2013-02-13 23:08:00,34.9,22.0,27.91,South,180,0.0,0.0,59,0.00,CLR,SKC,0.07,WeatherDisplay:10.37,2013-02-14 04:08:00,
2013-02-13 23:11:00,34.9,22.0,27.91,South,180,0.0,0.0,59,0.00,CLR,SKC,0.07,WeatherDisplay:10.37,2013-02-14 04:11:00,
2013-02-13 23:13:00,34.9,22.0,27.91,South,180,0.0,0.0,59,0.00,CLR,SKC,0.07,WeatherDisplay:10.37,2013-02-14 04:13:00,
2013-02-13 23:16:00,34.7,21.8,27.91,South,180,0.0,0.0,59,0.00,CLR,SKC,0.07,WeatherDisplay:10.37,2013-02-14 04:16:00,
2013-02-13 23:18:00,34.7,21.8,27.90,South,180,0.0,0.0,59,0.00,CLR,SKC,0.07,WeatherDisplay:10.37,2013-02-14 04:18:00,
2013-02-13 23:21:00,34.7,21.8,27.91,South,180,0.0,0.0,59,0.00,CLR,SKC,0.07,WeatherDisplay:10.37,2013-02-14 04:21:00,
2013-02-13 23:22:00,34.7,21.8,27.91,South,180,0.0,0.0,59,0.00,CLR,SKC,0.07,WeatherDisplay:10.37,2013-02-14 04:22:00,
2013-02-13 23:23:00,34.7,21.8,27.91,South,180,0.0,0.0,59,0.00,CLR,SKC,0.07,WeatherDisplay:10.37,2013-02-14 04:23:00,
2013-02-13 23:26:00,34.5,21.7,27.91,South,180,0.0,0.0,59,0.00,CLR,SKC,0.07,WeatherDisplay:10.37,2013-02-14 04:26:00,
2013-02-13 23:27:00,34.5,21.7,27.91,South,180,0.0,0.0,59,0.00,CLR,SKC,0.07,WeatherDisplay:10.37,2013-02-14 04:27:00,
2013-02-13 23:28:00,34.5,21.7,27.91,South,180,0.0,0.0,59,0.00,CLR,SKC,0.07,WeatherDisplay:10.37,2013-02-14 04:28:00,
2013-02-13 23:31:00,34.5,21.7,27.91,South,180,0.0,0.0,59,0.00,CLR,SKC,0.07,WeatherDisplay:10.37,2013-02-14 04:31:00,
2013-02-13 23:32:00,34.5,21.7,27.91,South,180,0.0,0.0,59,0.00,CLR,SKC,0.07,WeatherDisplay:10.37,2013-02-14 04:32:00,
2013-02-13 23:34:00,34.5,21.7,27.91,South,180,0.0,0.0,59,0.00,CLR,SKC,0.07,WeatherDisplay:10.37,2013-02-14 04:34:00,
2013-02-13 23:36:00,34.5,22.1,27.92,South,180,0.0,0.0,60,0.00,CLR,SKC,0.07,WeatherDisplay:10.37,2013-02-14 04:36:00,
2013-02-13 23:37:00,34.5,22.1,27.92,South,180,0.0,0.0,60,0.00,CLR,SKC,0.07,WeatherDisplay:10.37,2013-02-14 04:37:00,
2013-02-13 23:39:00,34.5,22.1,27.91,South,180,0.0,0.0,60,0.00,CLR,SKC,0.07,WeatherDisplay:10.37,2013-02-14 04:39:00,
2013-02-13 23:42:00,34.5,22.1,27.91,South,180,0.0,0.0,60,0.00,CLR,SKC,0.07,WeatherDisplay:10.37,2013-02-14 04:42:00,
2013-02-13 23:44:00,34.5,22.1,27.92,South,180,0.0,0.0,60,0.00,CLR,SKC,0.07,WeatherDisplay:10.37,2013-02-14 04:44:00,
2013-02-13 23:47:00,34.5,22.1,27.92,South,180,0.0,0.0,60,0.00,CLR,SKC,0.07,WeatherDisplay:10.37,2013-02-14 04:47:00,
2013-02-13 23:49:00,34.5,22.1,27.92,South,180,0.0,0.0,60,0.00,CLR,SKC,0.07,WeatherDisplay:10.37,2013-02-14 04:49:00,
2013-02-13 23:52:00,34.5,22.1,27.91,South,180,0.0,0.0,60,0.00,CLR,SKC,0.07,WeatherDisplay:10.37,2013-02-14 04:52:00,
2013-02-13 23:54:00,34.5,22.1,27.92,South,180,0.0,0.0,60,0.00,CLR,SKC,0.07,WeatherDisplay:10.37,2013-02-14 04:54:00,
2013-02-13 23:57:00,34.5,22.1,27.92,South,180,0.0,0.0,60,0.00,CLR,SKC,0.07,WeatherDisplay:10.37,2013-02-14 04:57:00,
2013-02-13 23:59:00,34.3,21.9,27.92,South,180,0.0,0.0,60,0.00,CLR,SKC,0.07,WeatherDisplay:10.37,2013-02-14 04:59:00,